IT9IJI-13 Weather Reports


Display with metric or nautical units.
time (UTC)temp
F
wind
direction
speed
MPH
gust
MPH
rain 1hr
in
rain 24hr
in
rain mn
in
humidity
%
barometer
mb
20260506144003 71 108 1.0 9.0 0.00 0.00 0.00 68 1014.6
20260506143903 71 108 1.0 9.0 0.00 0.00 0.00 68 1014.5
20260506143803 71 108 1.0 9.0 0.00 0.00 0.00 68 1014.5
20260506143703 71 113 0.0 3.0 0.00 0.00 0.00 68 1014.5
20260506143603 71 115 0.0 3.0 0.00 0.00 0.00 68 1014.5
20260506143503 71 114 0.0 3.0 0.00 0.00 0.00 67 1014.4
20260506143403 71 114 1.0 3.0 0.00 0.00 0.00 67 1014.3
20260506143303 71 115 1.0 4.0 0.00 0.00 0.00 67 1014.4
20260506143203 71 114 1.0 4.0 0.00 0.00 0.00 67 1014.3
20260506143103 71 114 1.0 4.0 0.00 0.00 0.00 67 1014.4
20260506143003 71 108 0.0 4.0 0.00 0.00 0.00 67 1014.3
20260506142903 71 109 0.0 4.0 0.00 0.00 0.00 67 1014.3
20260506142803 71 107 0.0 4.0 0.00 0.00 0.00 67 1014.3
20260506142703 71 110 1.0 4.0 0.00 0.00 0.00 67 1014.2
20260506142603 71 108 1.0 4.0 0.00 0.00 0.00 67 1014.2
20260506142503 71 108 0.0 4.0 0.00 0.00 0.00 67 1014.2
20260506142403 71 102 1.0 5.0 0.00 0.00 0.00 66 1014.2
20260506142305 71 105 0.0 5.0 0.00 0.00 0.00 66 1014.2
20260506142203 71 103 1.0 5.0 0.00 0.00 0.00 66 1014.3
20260506142104 71 106 1.0 5.0 0.00 0.00 0.00 66 1014.2
20260506142004 71 109 1.0 5.0 0.00 0.00 0.00 66 1014.2
20260506141904 71 112 1.0 5.0 0.00 0.00 0.00 66 1014.1
20260506141804 71 116 1.0 5.0 0.00 0.00 0.00 66 1014.1
20260506141704 72 113 1.0 5.0 0.00 0.00 0.00 66 1014.1
20260506141604 72 113 1.0 5.0 0.00 0.00 0.00 66 1014.1
20260506141504 72 113 1.0 5.0 0.00 0.00 0.00 66 1014.1
20260506141404 72 115 1.0 4.0 0.00 0.00 0.00 66 1014.1
20260506141304 72 111 1.0 4.0 0.00 0.00 0.00 66 1014.1
20260506141204 72 111 1.0 5.0 0.00 0.00 0.00 66 1014.1
20260506141104 72 112 1.0 5.0 0.00 0.00 0.00 66 1014.1
20260506141004 72 112 1.0 5.0 0.00 0.00 0.00 66 1014.1
20260506140904 72 114 1.0 5.0 0.00 0.00 0.00 66 1014.2
20260506140804 72 115 0.0 5.0 0.00 0.00 0.00 66 1014.2
20260506140704 72 290 0.0 5.0 0.00 0.00 0.00 66 1014.3
20260506140604 72 294 1.0 5.0 0.00 0.00 0.00 66 1014.3
20260506140504 72 106 1.0 5.0 0.00 0.00 0.00 67 1014.3
20260506140404 72 221 1.0 5.0 0.00 0.00 0.00 67 1014.4
20260506140304 72 257 0.0 5.0 0.00 0.00 0.00 67 1014.4
20260506140204 72 241 0.0 4.0 0.00 0.00 0.00 67 1014.4
20260506140104 72 244 0.0 4.0 0.00 0.00 0.00 67 1014.4
20260506140004 72 193 0.0 4.0 0.00 0.00 0.00 67 1014.3
20260506135904 72 229 0.0 4.0 0.00 0.00 0.00 67 1014.4
20260506135804 72 164 0.0 4.0 0.00 0.00 0.00 67 1014.4
20260506135704 72 123 0.0 4.0 0.00 0.00 0.00 67 1014.4
20260506135604 72 139 0.0 3.0 0.00 0.00 0.00 67 1014.4
20260506135504 72 147 0.0 3.0 0.00 0.00 0.00 67 1014.4
20260506135404 72 275 0.0 3.0 0.00 0.00 0.00 67 1014.4
20260506135306 72 291 0.0 3.0 0.00 0.00 0.00 67 1014.4
20260506135204 72 289 0.0 3.0 0.00 0.00 0.00 67 1014.4
20260506135104 72 280 0.0 3.0 0.00 0.00 0.00 67 1014.4
20260506135004 72 300 0.0 3.0 0.00 0.00 0.00 67 1014.4
20260506134904 72 298 0.0 3.0 0.00 0.00 0.00 67 1014.4
20260506134804 72 302 0.0 3.0 0.00 0.00 0.00 67 1014.4
20260506134704 72 309 0.0 3.0 0.00 0.00 0.00 67 1014.4
20260506134604 72 325 0.0 3.0 0.00 0.00 0.00 67 1014.3
20260506134504 72 86 1.0 4.0 0.00 0.00 0.00 67 1014.5
20260506134404 72 99 1.0 4.0 0.00 0.00 0.00 67 1014.4
20260506134304 72 103 1.0 4.0 0.00 0.00 0.00 67 1014.4
20260506134204 72 103 1.0 5.0 0.00 0.00 0.00 67 1014.3
20260506134104 72 103 1.0 5.0 0.00 0.00 0.00 66 1014.4
20260506134003 72 107 1.0 5.0 0.00 0.00 0.00 67 1014.4
20260506133903 72 105 1.0 6.0 0.00 0.00 0.00 66 1014.4
20260506133804 72 108 1.0 6.0 0.00 0.00 0.00 66 1014.4
20260506133704 72 111 1.0 6.0 0.00 0.00 0.00 66 1014.4
20260506133604 72 112 1.0 6.0 0.00 0.00 0.00 66 1014.4
20260506133504 72 116 1.0 6.0 0.00 0.00 0.00 66 1014.4
20260506133403 72 120 1.0 6.0 0.00 0.00 0.00 66 1014.5
20260506133303 72 117 1.0 6.0 0.00 0.00 0.00 66 1014.5
20260506133204 72 118 1.0 6.0 0.00 0.00 0.00 66 1014.5
20260506133103 72 120 0.0 6.0 0.00 0.00 0.00 66 1014.6
20260506133004 72 116 1.0 7.0 0.00 0.00 0.00 66 1014.5
20260506132903 72 120 1.0 7.0 0.00 0.00 0.00 66 1014.5
20260506132803 72 114 1.0 7.0 0.00 0.00 0.00 66 1014.6
20260506132703 72 113 1.0 7.0 0.00 0.00 0.00 66 1014.5
20260506132603 72 111 1.0 7.0 0.00 0.00 0.00 66 1014.6
20260506132503 72 107 1.0 7.0 0.00 0.00 0.00 66 1014.6
20260506132403 72 115 1.0 7.0 0.00 0.00 0.00 66 1014.5
20260506132307 72 117 1.0 7.0 0.00 0.00 0.00 66 1014.6
20260506132203 72 117 1.0 7.0 0.00 0.00 0.00 66 1014.8
20260506132103 72 118 1.0 7.0 0.00 0.00 0.00 66 1014.7
20260506132003 72 120 1.0 6.0 0.00 0.00 0.00 66 1014.7
20260506131904 72 120 1.0 6.0 0.00 0.00 0.00 66 1014.7
20260506131804 72 124 1.0 5.0 0.00 0.00 0.00 66 1014.7
20260506131703 72 125 1.0 5.0 0.00 0.00 0.00 66 1014.7
20260506131603 72 123 1.0 5.0 0.00 0.00 0.00 65 1014.8
20260506131503 72 121 1.0 5.0 0.00 0.00 0.00 65 1014.7
20260506131403 72 110 1.0 4.0 0.00 0.00 0.00 65 1014.8
20260506131303 72 116 1.0 4.0 0.00 0.00 0.00 65 1014.8
20260506131203 72 94 1.0 4.0 0.00 0.00 0.00 65 1014.8
20260506131103 72 90 1.0 4.0 0.00 0.00 0.00 65 1014.8
20260506131003 73 98 1.0 4.0 0.00 0.00 0.00 65 1014.8
20260506130903 73 94 1.0 4.0 0.00 0.00 0.00 65 1014.8
20260506130803 73 9 1.0 4.0 0.00 0.00 0.00 65 1014.8
20260506130703 73 79 0.0 4.0 0.00 0.00 0.00 65 1014.8
20260506130603 73 108 1.0 8.0 0.00 0.00 0.00 65 1014.8
20260506130503 73 107 1.0 8.0 0.00 0.00 0.00 65 1014.9
20260506130403 73 112 1.0 8.0 0.00 0.00 0.00 65 1014.9
20260506130303 73 107 1.0 8.0 0.00 0.00 0.00 65 1014.9
20260506130203 73 111 1.0 8.0 0.00 0.00 0.00 65 1015.0
20260506130103 73 112 1.0 8.0 0.00 0.00 0.00 65 1014.9
20260506130004 73 111 1.0 8.0 0.00 0.00 0.00 65 1014.9
20260506125903 73 114 1.0 8.0 0.00 0.00 0.00 65 1015.0
20260506125803 73 114 1.0 8.0 0.00 0.00 0.00 65 1014.8
20260506125703 73 115 1.0 8.0 0.00 0.00 0.00 65 1014.8
20260506125603 73 114 1.0 5.0 0.00 0.00 0.00 65 1015.0
20260506125503 73 114 1.0 5.0 0.00 0.00 0.00 65 1015.0
20260506125403 73 111 1.0 5.0 0.00 0.00 0.00 65 1015.0
20260506125305 73 113 1.0 5.0 0.00 0.00 0.00 65 1015.1
20260506125203 73 111 1.0 5.0 0.00 0.00 0.00 65 1015.0
20260506125103 73 106 1.0 5.0 0.00 0.00 0.00 65 1015.1
20260506125003 73 107 1.0 5.0 0.00 0.00 0.00 65 1015.1
20260506124903 73 105 1.0 5.0 0.00 0.00 0.00 65 1015.1
20260506124803 73 101 1.0 4.0 0.00 0.00 0.00 65 1015.1
20260506124703 73 102 1.0 4.0 0.00 0.00 0.00 65 1015.0
20260506124603 73 106 1.0 4.0 0.00 0.00 0.00 65 1015.1
20260506124503 73 103 1.0 6.0 0.00 0.00 0.00 65 1015.1
20260506124403 73 101 1.0 6.0 0.00 0.00 0.00 65 1015.1
20260506124303 73 100 1.0 6.0 0.00 0.00 0.00 65 1015.1
20260506124203 73 101 1.0 6.0 0.00 0.00 0.00 65 1015.1
20260506124103 73 106 1.0 6.0 0.00 0.00 0.00 65 1015.1
20260506124003 73 110 1.0 6.0 0.00 0.00 0.00 65 1015.1
20260506123903 73 105 1.0 6.0 0.00 0.00 0.00 65 1015.1
20260506123803 73 107 1.0 6.0 0.00 0.00 0.00 65 1015.1
20260506123703 73 110 1.0 6.0 0.00 0.00 0.00 65 1015.1
20260506123603 73 110 1.0 6.0 0.00 0.00 0.00 65 1015.0
20260506123503 73 110 1.0 4.0 0.00 0.00 0.00 65 1015.0
20260506123403 73 112 1.0 4.0 0.00 0.00 0.00 65 1015.0
20260506123303 73 110 1.0 4.0 0.00 0.00 0.00 65 1015.1
20260506123203 73 115 1.0 4.0 0.00 0.00 0.00 65 1015.0
20260506123103 73 115 1.0 4.0 0.00 0.00 0.00 65 1015.0
20260506123003 73 112 0.0 4.0 0.00 0.00 0.00 65 1015.0
20260506122903 73 119 0.0 5.0 0.00 0.00 0.00 65 1014.9
20260506122803 73 115 0.0 5.0 0.00 0.00 0.00 65 1014.9
20260506122703 73 110 0.0 5.0 0.00 0.00 0.00 65 1014.9
20260506122603 73 110 0.0 5.0 0.00 0.00 0.00 65 1015.0
20260506122503 73 112 0.0 5.0 0.00 0.00 0.00 65 1014.9
20260506122403 73 112 0.0 5.0 0.00 0.00 0.00 65 1014.9
20260506122305 73 115 0.0 5.0 0.00 0.00 0.00 65 1014.9
20260506122203 73 106 0.0 5.0 0.00 0.00 0.00 65 1015.0
20260506122103 73 108 0.0 5.0 0.00 0.00 0.00 65 1015.0
20260506122003 73 100 1.0 5.0 0.00 0.00 0.00 66 1014.9
20260506121903 73 97 0.0 4.0 0.00 0.00 0.00 66 1015.0
20260506121803 72 95 1.0 6.0 0.00 0.00 0.00 66 1015.1
20260506121703 72 97 1.0 6.0 0.00 0.00 0.00 66 1015.0
20260506121603 72 98 1.0 6.0 0.00 0.00 0.00 66 1015.0
20260506121503 72 97 1.0 6.0 0.00 0.00 0.00 66 1015.1
20260506121403 72 98 1.0 6.0 0.00 0.00 0.00 66 1015.1
20260506121303 72 99 1.0 6.0 0.00 0.00 0.00 66 1015.1
20260506121203 72 100 1.0 6.0 0.00 0.00 0.00 66 1015.2
20260506121103 72 99 1.0 8.0 0.00 0.00 0.00 66 1015.2
20260506121003 72 103 1.0 8.0 0.00 0.00 0.00 66 1015.1
20260506120903 72 102 1.0 8.0 0.00 0.00 0.00 66 1015.1
20260506120803 72 105 1.0 8.0 0.00 0.00 0.00 66 1015.0
20260506120703 72 106 1.0 8.0 0.00 0.00 0.00 66 1015.2
20260506120603 72 105 1.0 8.0 0.00 0.00 0.00 66 1015.2
20260506120503 72 103 1.0 8.0 0.00 0.00 0.00 66 1015.2
20260506120403 72 101 1.0 8.0 0.00 0.00 0.00 66 1015.2
20260506120303 72 101 1.0 8.0 0.00 0.00 0.00 66 1015.2
20260506120203 72 100 1.0 8.0 0.00 0.00 0.00 66 1015.2
20260506120104 72 103 1.0 4.0 0.00 0.00 0.00 66 1015.2
20260506120004 72 103 1.0 6.0 0.00 0.00 0.00 66 1015.2
20260506115904 72 103 1.0 6.0 0.00 0.00 0.00 66 1015.2
20260506115804 72 103 1.0 6.0 0.00 0.00 0.00 66 1015.2
20260506115704 72 103 1.0 6.0 0.00 0.00 0.00 66 1015.2
20260506115604 72 106 1.0 6.0 0.00 0.00 0.00 66 1015.1
20260506115504 72 108 1.0 6.0 0.00 0.00 0.00 66 1015.2
20260506115404 72 110 1.0 6.0 0.00 0.00 0.00 66 1015.3
20260506115306 72 111 1.0 6.0 0.00 0.00 0.00 66 1015.3
20260506115204 72 111 1.0 6.0 0.00 0.00 0.00 66 1015.3
20260506115104 72 111 1.0 6.0 0.00 0.00 0.00 66 1015.4
20260506115004 72 112 1.0 6.0 0.00 0.00 0.00 66 1015.5
20260506114904 72 113 1.0 6.0 0.00 0.00 0.00 66 1015.4
20260506114804 72 113 1.0 6.0 0.00 0.00 0.00 66 1015.4
20260506114704 72 114 1.0 6.0 0.00 0.00 0.00 66 1015.4
20260506114604 72 110 1.0 6.0 0.00 0.00 0.00 66 1015.5
20260506114504 72 107 1.0 6.0 0.00 0.00 0.00 66 1015.4
20260506114404 72 106 1.0 6.0 0.00 0.00 0.00 66 1015.5
20260506114304 72 107 1.0 6.0 0.00 0.00 0.00 66 1015.5
20260506114204 72 108 1.0 6.0 0.00 0.00 0.00 65 1015.5
20260506114104 72 110 1.0 6.0 0.00 0.00 0.00 65 1015.4
20260506114004 72 112 1.0 5.0 0.00 0.00 0.00 65 1015.6
20260506113904 72 112 2.0 5.0 0.00 0.00 0.00 65 1015.6
20260506113804 73 110 2.0 5.0 0.00 0.00 0.00 65 1015.5
20260506113704 73 108 1.0 5.0 0.00 0.00 0.00 65 1015.5
20260506113604 73 111 1.0 5.0 0.00 0.00 0.00 65 1015.5
20260506113504 73 111 1.0 5.0 0.00 0.00 0.00 65 1015.5
20260506113404 73 111 1.0 5.0 0.00 0.00 0.00 65 1015.5
20260506113304 73 110 1.0 5.0 0.00 0.00 0.00 65 1015.5
20260506113204 73 108 1.0 5.0 0.00 0.00 0.00 65 1015.5
20260506113104 73 106 1.0 5.0 0.00 0.00 0.00 65 1015.5
20260506113004 73 104 1.0 5.0 0.00 0.00 0.00 65 1015.7
20260506112904 73 103 1.0 5.0 0.00 0.00 0.00 65 1015.6
20260506112804 73 102 1.0 5.0 0.00 0.00 0.00 66 1015.5
20260506112704 73 104 1.0 5.0 0.00 0.00 0.00 66 1015.6
20260506112604 73 102 1.0 5.0 0.00 0.00 0.00 66 1015.6
20260506112504 73 111 1.0 5.0 0.00 0.00 0.00 66 1015.6
20260506112404 73 115 1.0 5.0 0.00 0.00 0.00 66 1015.5
20260506112306 73 112 1.0 5.0 0.00 0.00 0.00 66 1015.5
20260506112203 73 116 1.0 5.0 0.00 0.00 0.00 66 1015.2
20260506112103 73 116 1.0 5.0 0.00 0.00 0.00 67 1015.3
20260506112004 72 116 1.0 5.0 0.00 0.00 0.00 67 1015.3
20260506111904 72 117 1.0 5.0 0.00 0.00 0.00 67 1015.3
20260506111803 72 116 1.0 5.0 0.00 0.00 0.00 67 1015.3
20260506111703 72 117 1.0 5.0 0.00 0.00 0.00 67 1015.2
20260506111604 72 115 1.0 5.0 0.00 0.00 0.00 67 1015.3
20260506111504 72 116 1.0 5.0 0.00 0.00 0.00 67 1015.3
20260506111403 72 116 1.0 5.0 0.00 0.00 0.00 67 1015.3
20260506111303 72 113 0.0 3.0 0.00 0.00 0.00 67 1015.4
20260506111203 72 109 0.0 3.0 0.00 0.00 0.00 67 1015.4
20260506111103 72 112 0.0 4.0 0.00 0.00 0.00 67 1015.4
20260506111003 72 106 0.0 4.0 0.00 0.00 0.00 67 1015.5
20260506110903 72 105 0.0 4.0 0.00 0.00 0.00 67 1015.6
20260506110803 72 108 0.0 4.0 0.00 0.00 0.00 67 1015.5
20260506110703 72 108 1.0 4.0 0.00 0.00 0.00 67 1015.6
20260506110603 72 114 1.0 4.0 0.00 0.00 0.00 67 1015.5
20260506110503 72 114 1.0 4.0 0.00 0.00 0.00 67 1015.6
20260506110403 72 121 1.0 4.0 0.00 0.00 0.00 67 1015.7
20260506110303 72 119 1.0 4.0 0.00 0.00 0.00 67 1015.7
20260506110203 72 119 1.0 4.0 0.00 0.00 0.00 67 1015.7
20260506110103 72 118 1.0 4.0 0.00 0.00 0.00 67 1015.7
20260506110004 72 117 1.0 6.0 0.00 0.00 0.00 68 1015.7
20260506105903 72 117 1.0 6.0 0.00 0.00 0.00 68 1015.7
20260506105803 72 114 1.0 6.0 0.00 0.00 0.00 68 1015.7
20260506105703 72 115 1.0 6.0 0.00 0.00 0.00 68 1015.8
20260506105603 72 112 1.0 6.0 0.00 0.00 0.00 68 1015.7
20260506105503 72 111 1.0 6.0 0.00 0.00 0.00 68 1015.6
20260506105403 72 108 1.0 6.0 0.00 0.00 0.00 68 1015.7
20260506105305 72 108 1.0 6.0 0.00 0.00 0.00 68 1015.7
20260506105203 72 107 1.0 6.0 0.00 0.00 0.00 68 1015.7
20260506105103 72 106 1.0 6.0 0.00 0.00 0.00 68 1015.7
20260506105003 72 107 1.0 6.0 0.00 0.00 0.00 68 1015.6
20260506104903 72 105 1.0 6.0 0.00 0.00 0.00 68 1015.7
20260506104803 72 105 1.0 6.0 0.00 0.00 0.00 67 1015.7
20260506104703 72 104 1.0 6.0 0.00 0.00 0.00 67 1015.6
20260506104603 72 106 1.0 4.0 0.00 0.00 0.00 67 1015.6
20260506104503 72 110 1.0 4.0 0.00 0.00 0.00 67 1015.6
20260506104403 72 112 1.0 5.0 0.00 0.00 0.00 67 1015.6
20260506104303 72 110 1.0 5.0 0.00 0.00 0.00 67 1015.5
20260506104203 72 113 1.0 5.0 0.00 0.00 0.00 67 1015.5
20260506104103 72 113 1.0 5.0 0.00 0.00 0.00 67 1015.7
20260506104003 72 111 1.0 5.0 0.00 0.00 0.00 67 1015.7
20260506103903 72 111 1.0 5.0 0.00 0.00 0.00 67 1015.6
20260506103803 72 111 1.0 5.0 0.00 0.00 0.00 67 1015.6
20260506103703 72 112 1.0 5.0 0.00 0.00 0.00 67 1015.7
20260506103603 72 112 1.0 5.0 0.00 0.00 0.00 67 1015.7
20260506103503 73 112 2.0 6.0 0.00 0.00 0.00 67 1015.6
20260506103403 73 111 1.0 6.0 0.00 0.00 0.00 67 1015.7
20260506103303 73 115 1.0 6.0 0.00 0.00 0.00 67 1015.6
20260506103203 73 112 1.0 6.0 0.00 0.00 0.00 67 1015.7
20260506103103 73 112 1.0 6.0 0.00 0.00 0.00 67 1015.7
20260506103003 73 112 1.0 6.0 0.00 0.00 0.00 67 1015.6
20260506102903 73 112 1.0 6.0 0.00 0.00 0.00 67 1015.6
20260506102803 73 112 1.0 6.0 0.00 0.00 0.00 67 1015.6
20260506102703 73 108 1.0 7.0 0.00 0.00 0.00 66 1015.7
20260506102603 73 101 1.0 7.0 0.00 0.00 0.00 67 1015.7
20260506102503 73 98 1.0 7.0 0.00 0.00 0.00 67 1015.6
20260506102403 73 97 1.0 7.0 0.00 0.00 0.00 67 1015.8
20260506102305 73 96 1.0 7.0 0.00 0.00 0.00 66 1015.7
20260506102203 73 95 1.0 7.0 0.00 0.00 0.00 66 1015.7
20260506102103 72 97 1.0 7.0 0.00 0.00 0.00 66 1015.6
20260506102003 73 97 1.0 7.0 0.00 0.00 0.00 66 1015.6
20260506101903 73 97 1.0 7.0 0.00 0.00 0.00 66 1015.7
20260506101803 73 98 1.0 7.0 0.00 0.00 0.00 66 1015.7
20260506101703 73 101 1.0 5.0 0.00 0.00 0.00 66 1015.8
20260506101603 73 102 1.0 5.0 0.00 0.00 0.00 66 1015.7
20260506101503 73 102 1.0 5.0 0.00 0.00 0.00 66 1015.7
20260506101403 73 101 1.0 5.0 0.00 0.00 0.00 66 1015.8
20260506101303 73 98 1.0 5.0 0.00 0.00 0.00 66 1015.7
20260506101203 73 101 1.0 5.0 0.00 0.00 0.00 66 1015.7
20260506101103 73 100 1.0 5.0 0.00 0.00 0.00 66 1015.7
20260506101003 73 99 1.0 5.0 0.00 0.00 0.00 66 1015.8
20260506100903 73 100 1.0 5.0 0.00 0.00 0.00 66 1015.8
20260506100803 73 99 1.0 5.0 0.00 0.00 0.00 66 1015.8
20260506100703 73 99 0.0 5.0 0.00 0.00 0.00 66 1015.8
20260506100603 73 110 0.0 5.0 0.00 0.00 0.00 66 1015.8
20260506100503 73 110 1.0 5.0 0.00 0.00 0.00 66 1015.8
20260506100403 73 110 1.0 5.0 0.00 0.00 0.00 65 1015.8
20260506100303 73 110 1.0 5.0 0.00 0.00 0.00 66 1015.8
20260506100203 73 109 0.0 5.0 0.00 0.00 0.00 66 1015.8
20260506100003 73 113 1.0 5.0 0.00 0.00 0.00 66 1015.9
20260506095903 73 113 0.0 5.0 0.00 0.00 0.00 66 1015.9
20260506095803 73 112 0.0 5.0 0.00 0.00 0.00 65 1015.8
20260506095703 73 115 1.0 5.0 0.00 0.00 0.00 66 1015.8
20260506095603 73 119 0.0 3.0 0.00 0.00 0.00 66 1015.8
20260506095503 73 127 0.0 3.0 0.00 0.00 0.00 66 1015.8
20260506095403 73 133 0.0 3.0 0.00 0.00 0.00 66 1015.9
20260506095305 73 133 0.0 3.0 0.00 0.00 0.00 66 1015.8
20260506095203 72 134 0.0 3.0 0.00 0.00 0.00 66 1015.8
20260506095103 72 125 0.0 3.0 0.00 0.00 0.00 66 1015.8
20260506095003 72 122 0.0 3.0 0.00 0.00 0.00 67 1015.9
20260506094903 72 122 0.0 3.0 0.00 0.00 0.00 67 1015.9
20260506094803 72 122 0.0 3.0 0.00 0.00 0.00 67 1015.8
20260506094703 72 106 0.0 2.0 0.00 0.00 0.00 67 1015.9
20260506094603 72 106 0.0 2.0 0.00 0.00 0.00 67 1015.9
20260506094503 72 106 0.0 2.0 0.00 0.00 0.00 67 1015.9
20260506094403 72 106 0.0 2.0 0.00 0.00 0.00 67 1015.9
20260506094303 72 108 0.0 2.0 0.00 0.00 0.00 67 1015.9
20260506094204 72 107 0.0 3.0 0.00 0.00 0.00 67 1015.9
20260506094104 72 108 0.0 3.0 0.00 0.00 0.00 67 1015.9
20260506094004 72 109 0.0 3.0 0.00 0.00 0.00 67 1015.9
20260506093904 72 109 0.0 3.0 0.00 0.00 0.00 67 1015.9
20260506093804 72 110 0.0 3.0 0.00 0.00 0.00 67 1015.9
20260506093704 72 110 0.0 3.0 0.00 0.00 0.00 67 1015.9
20260506093604 72 110 0.0 3.0 0.00 0.00 0.00 67 1015.9
20260506093504 72 109 0.0 3.0 0.00 0.00 0.00 67 1015.9
20260506093404 72 109 0.0 3.0 0.00 0.00 0.00 67 1015.9
20260506093304 72 109 0.0 3.0 0.00 0.00 0.00 67 1015.9
20260506093204 71 110 0.0 3.0 0.00 0.00 0.00 67 1016.0
20260506093104 72 109 0.0 3.0 0.00 0.00 0.00 67 1015.9
20260506093004 71 112 0.0 4.0 0.00 0.00 0.00 66 1016.0
20260506092904 72 115 0.0 4.0 0.00 0.00 0.00 66 1016.0
20260506092804 72 117 0.0 4.0 0.00 0.00 0.00 66 1016.0
20260506092704 72 117 0.0 4.0 0.00 0.00 0.00 66 1015.9
20260506092604 72 117 0.0 4.0 0.00 0.00 0.00 66 1015.9
20260506092504 72 119 0.0 4.0 0.00 0.00 0.00 66 1016.0
20260506092404 72 119 0.0 4.0 0.00 0.00 0.00 65 1016.0
20260506092306 72 119 0.0 4.0 0.00 0.00 0.00 65 1016.0
20260506092204 72 117 0.0 4.0 0.00 0.00 0.00 65 1016.1
20260506092104 72 117 0.0 4.0 0.00 0.00 0.00 65 1016.1
20260506092004 72 111 0.0 3.0 0.00 0.00 0.00 65 1016.0
20260506091904 72 111 0.0 3.0 0.00 0.00 0.00 65 1016.2
20260506091804 72 118 0.0 4.0 0.00 0.00 0.00 65 1016.1
20260506091704 72 118 0.0 4.0 0.00 0.00 0.00 65 1016.0
20260506091604 72 117 0.0 4.0 0.00 0.00 0.00 65 1015.9
20260506091504 72 118 1.0 4.0 0.00 0.00 0.00 64 1015.8
20260506091404 72 117 1.0 4.0 0.00 0.00 0.00 64 1015.8
20260506091304 73 115 1.0 4.0 0.00 0.00 0.00 64 1015.8
20260506091204 73 115 1.0 4.0 0.00 0.00 0.00 64 1015.7
20260506091104 73 115 1.0 4.0 0.00 0.00 0.00 64 1015.5
20260506091004 73 115 1.0 4.0 0.00 0.00 0.00 64 1015.5
20260506090904 73 114 1.0 6.0 0.00 0.00 0.00 64 1015.5
20260506090804 73 112 1.0 6.0 0.00 0.00 0.00 64 1015.5
20260506090704 73 112 1.0 6.0 0.00 0.00 0.00 64 1015.5
20260506090604 74 112 1.0 6.0 0.00 0.00 0.00 63 1015.5
20260506090504 74 109 1.0 6.0 0.00 0.00 0.00 63 1015.7
20260506090404 74 110 1.0 6.0 0.00 0.00 0.00 63 1015.7
20260506090304 74 110 1.0 6.0 0.00 0.00 0.00 63 1015.6
20260506090204 74 114 1.0 6.0 0.00 0.00 0.00 63 1015.7
20260506090104 74 114 1.0 6.0 0.00 0.00 0.00 63 1015.9
20260506090004 74 114 1.0 6.0 0.00 0.00 0.00 63 1015.9
20260506085904 74 103 1.0 14.0 0.00 0.00 0.00 63 1015.9
20260506085804 74 104 1.0 14.0 0.00 0.00 0.00 63 1015.8
20260506085703 74 104 1.0 14.0 0.00 0.00 0.00 63 1015.9
20260506085603 74 105 1.0 14.0 0.00 0.00 0.00 63 1015.9
20260506085503 74 87 1.0 14.0 0.00 0.00 0.00 63 1015.8
20260506085403 74 84 1.0 14.0 0.00 0.00 0.00 63 1015.9
20260506085306 74 84 1.0 14.0 0.00 0.00 0.00 63 1015.9
20260506085203 74 52 1.0 14.0 0.00 0.00 0.00 63 1015.9
20260506085103 74 33 1.0 14.0 0.00 0.00 0.00 64 1015.8
20260506085003 74 13 1.0 14.0 0.00 0.00 0.00 64 1015.9
20260506084903 74 68 1.0 14.0 0.00 0.00 0.00 64 1015.9
20260506084803 74 349 0.0 14.0 0.00 0.00 0.00 65 1015.9
20260506084703 74 356 0.0 14.0 0.00 0.00 0.00 65 1015.9
20260506084603 74 7 0.0 14.0 0.00 0.00 0.00 65 1015.9
20260506084503 74 115 0.0 2.0 0.00 0.00 0.00 65 1015.9
20260506084403 74 113 0.0 3.0 0.00 0.00 0.00 65 1015.9
20260506084303 74 113 0.0 3.0 0.00 0.00 0.00 65 1015.9
20260506084203 73 113 0.0 3.0 0.00 0.00 0.00 65 1015.9
20260506084103 73 112 0.0 3.0 0.00 0.00 0.00 66 1015.9
20260506084003 73 112 0.0 3.0 0.00 0.00 0.00 66 1015.9
20260506083903 73 112 0.0 3.0 0.00 0.00 0.00 66 1015.9
20260506083803 73 113 0.0 3.0 0.00 0.00 0.00 66 1015.9
20260506083703 73 108 0.0 3.0 0.00 0.00 0.00 66 1015.9
20260506083603 73 104 0.0 3.0 0.00 0.00 0.00 66 1015.9
20260506083503 73 107 0.0 3.0 0.00 0.00 0.00 66 1015.9
20260506083403 73 100 0.0 3.0 0.00 0.00 0.00 66 1015.9
20260506083303 73 101 0.0 3.0 0.00 0.00 0.00 67 1015.9
20260506083203 73 99 0.0 3.0 0.00 0.00 0.00 67 1016.0
20260506083103 72 99 1.0 3.0 0.00 0.00 0.00 67 1015.9
20260506083003 72 101 1.0 3.0 0.00 0.00 0.00 67 1015.9
20260506082903 72 102 1.0 4.0 0.00 0.00 0.00 67 1015.9
20260506082803 72 102 1.0 4.0 0.00 0.00 0.00 67 1016.0
20260506082703 72 102 1.0 4.0 0.00 0.00 0.00 67 1015.9
20260506082603 72 102 1.0 4.0 0.00 0.00 0.00 67 1015.8
20260506082503 72 101 1.0 4.0 0.00 0.00 0.00 67 1015.9
20260506082403 72 102 1.0 4.0 0.00 0.00 0.00 67 1015.9
20260506082305 72 103 1.0 4.0 0.00 0.00 0.00 67 1016.0
20260506082203 72 105 1.0 4.0 0.00 0.00 0.00 67 1015.9
20260506082103 72 108 1.0 4.0 0.00 0.00 0.00 67 1015.9
20260506082003 73 108 1.0 4.0 0.00 0.00 0.00 67 1016.0
20260506081903 72 108 1.0 4.0 0.00 0.00 0.00 67 1016.1
20260506081803 72 111 1.0 4.0 0.00 0.00 0.00 66 1016.0
20260506081703 72 112 1.0 4.0 0.00 0.00 0.00 66 1015.9
20260506081603 72 112 1.0 4.0 0.00 0.00 0.00 66 1016.0
20260506081503 72 112 1.0 4.0 0.00 0.00 0.00 67 1016.0
20260506081403 72 112 1.0 4.0 0.00 0.00 0.00 67 1016.0
20260506081303 72 114 1.0 4.0 0.00 0.00 0.00 67 1016.1
20260506081203 72 114 1.0 4.0 0.00 0.00 0.00 67 1016.0
20260506081103 72 112 1.0 4.0 0.00 0.00 0.00 68 1016.0
20260506081003 72 112 1.0 4.0 0.00 0.00 0.00 68 1016.0
20260506080903 72 113 1.0 4.0 0.00 0.00 0.00 68 1016.1
20260506080804 72 111 1.0 3.0 0.00 0.00 0.00 68 1016.0
20260506080703 72 113 1.0 3.0 0.00 0.00 0.00 68 1016.0
20260506080603 72 112 1.0 3.0 0.00 0.00 0.00 69 1016.0
20260506080503 72 114 1.0 3.0 0.00 0.00 0.00 69 1016.0
20260506080403 72 113 1.0 4.0 0.00 0.00 0.00 68 1016.0
20260506080303 72 112 1.0 4.0 0.00 0.00 0.00 68 1016.1
20260506080203 72 112 1.0 4.0 0.00 0.00 0.00 68 1016.1
20260506073503 74 121 0.0 3.0 0.00 0.00 0.00 67 1016.0
20260506073403 74 120 0.0 3.0 0.00 0.00 0.00 67 1016.0
20260506073303 74 124 0.0 3.0 0.00 0.00 0.00 67 1016.1
20260506073203 74 127 0.0 3.0 0.00 0.00 0.00 67 1016.1
20260506073103 74 129 0.0 3.0 0.00 0.00 0.00 67 1016.2
20260506073003 73 120 0.0 3.0 0.00 0.00 0.00 68 1016.2
20260506072903 73 121 0.0 3.0 0.00 0.00 0.00 68 1016.2
20260506072804 73 131 0.0 3.0 0.00 0.00 0.00 68 1016.2
20260506072704 73 132 0.0 2.0 0.00 0.00 0.00 68 1016.2
20260506072604 73 126 0.0 2.0 0.00 0.00 0.00 68 1016.1
20260506072504 73 113 0.0 2.0 0.00 0.00 0.00 68 1016.2
20260506072404 72 119 1.0 5.0 0.00 0.00 0.00 68 1016.1
20260506072305 73 115 1.0 6.0 0.00 0.00 0.00 68 1016.2
20260506072204 73 114 1.0 6.0 0.00 0.00 0.00 68 1016.2
20260506072104 73 114 1.0 6.0 0.00 0.00 0.00 67 1016.2
20260506072004 73 114 1.0 6.0 0.00 0.00 0.00 67 1016.2
20260506071904 73 112 1.0 9.0 0.00 0.00 0.00 67 1016.2
20260506071804 73 112 1.0 9.0 0.00 0.00 0.00 66 1016.1
20260506071704 73 112 1.0 9.0 0.00 0.00 0.00 66 1016.2
20260506071604 73 112 1.0 9.0 0.00 0.00 0.00 66 1016.2
20260506071504 74 113 1.0 9.0 0.00 0.00 0.00 66 1016.2
20260506071404 74 111 1.0 9.0 0.00 0.00 0.00 66 1016.2
20260506071304 74 111 1.0 9.0 0.00 0.00 0.00 66 1016.2
20260506071204 74 110 1.0 9.0 0.00 0.00 0.00 66 1016.0
20260506071104 74 110 1.0 9.0 0.00 0.00 0.00 66 1016.1
20260506071004 74 110 1.0 9.0 0.00 0.00 0.00 66 1016.0
20260506070904 74 109 1.0 5.0 0.00 0.00 0.00 67 1016.1
20260506070804 74 110 1.0 7.0 0.00 0.00 0.00 67 1016.1
20260506070704 74 110 2.0 7.0 0.00 0.00 0.00 67 1015.9
20260506070604 74 110 2.0 7.0 0.00 0.00 0.00 67 1016.0
20260506070504 74 109 2.0 7.0 0.00 0.00 0.00 67 1016.1
20260506070404 74 108 2.0 7.0 0.00 0.00 0.00 67 1016.0
20260506070304 74 108 1.0 7.0 0.00 0.00 0.00 67 1016.0
20260506070204 73 108 1.0 7.0 0.00 0.00 0.00 67 1016.0
20260506070104 73 107 1.0 7.0 0.00 0.00 0.00 67 1016.1
20260506062503 70 112 0.0 4.0 0.00 0.00 0.00 74 1016.0
20260506062403 70 113 0.0 4.0 0.00 0.00 0.00 74 1016.0
20260506062305 70 124 0.0 4.0 0.00 0.00 0.00 74 1016.0
20260506062203 69 115 0.0 4.0 0.00 0.00 0.00 75 1016.0
20260506062103 69 112 0.0 2.0 0.00 0.00 0.00 75 1016.0
20260506062003 69 112 0.0 2.0 0.00 0.00 0.00 75 1016.0
20260506061903 69 112 0.0 2.0 0.00 0.00 0.00 75 1016.0
20260506061803 69 112 0.0 2.0 0.00 0.00 0.00 76 1015.9
20260506061703 69 109 0.0 2.0 0.00 0.00 0.00 76 1015.9
20260506061603 68 109 0.0 2.0 0.00 0.00 0.00 76 1015.9
20260506061503 68 315 0.0 2.0 0.00 0.00 0.00 76 1015.8
20260506061403 68 315 0.0 2.0 0.00 0.00 0.00 77 1015.9
20260506061303 68 315 0.0 2.0 0.00 0.00 0.00 77 1015.8
20260506061203 68 315 0.0 2.0 0.00 0.00 0.00 77 1015.9
20260506061103 68 111 0.0 2.0 0.00 0.00 0.00 77 1015.9
20260506061003 67 111 0.0 2.0 0.00 0.00 0.00 77 1015.8
20260506060903 67 111 0.0 2.0 0.00 0.00 0.00 78 1015.8
20260506060803 67 111 0.0 2.0 0.00 0.00 0.00 78 1015.8
20260506060703 67 110 0.0 1.0 0.00 0.00 0.00 78 1015.7
20260506060603 67 111 0.0 1.0 0.00 0.00 0.00 78 1015.7
20260506060503 67 117 0.0 4.0 0.00 0.00 0.00 78 1015.6
20260506060403 67 116 0.0 4.0 0.00 0.00 0.00 78 1015.6
20260506060303 66 115 0.0 4.0 0.00 0.00 0.00 78 1015.7
20260506060203 66 115 0.0 4.0 0.00 0.00 0.00 78 1015.6
20260506051403 64 90 0.0 3.0 0.00 0.00 0.00 81 1015.2
20260506051303 64 90 0.0 3.0 0.00 0.00 0.00 81 1015.2
20260506051203 64 90 0.0 3.0 0.00 0.00 0.00 81 1015.2
20260506051103 64 90 0.0 3.0 0.00 0.00 0.00 81 1015.2
20260506051004 64 0 0.0 0.0 0.00 0.00 0.00 81 1015.1
20260506050904 64 0 0.0 0.0 0.00 0.00 0.00 81 1015.2
20260506050804 64 0 0.0 0.0 0.00 0.00 0.00 81 1015.1
20260506050704 64 112 0.0 2.0 0.00 0.00 0.00 81 1015.2
20260506050604 64 112 0.0 2.0 0.00 0.00 0.00 81 1015.1
20260506050504 64 112 0.0 2.0 0.00 0.00 0.00 81 1015.2
20260506050404 64 112 0.0 3.0 0.00 0.00 0.00 81 1015.2
20260506050304 64 109 0.0 4.0 0.00 0.00 0.00 81 1015.1
20260506050204 64 109 0.0 4.0 0.00 0.00 0.00 81 1015.1
20260506050104 64 109 0.0 4.0 0.00 0.00 0.00 81 1015.1
20260506045104 64 112 0.0 2.0 0.00 0.00 0.00 82 1015.1
20260506045004 64 112 0.0 2.0 0.00 0.00 0.00 82 1015.2
20260506044904 64 112 0.0 2.0 0.00 0.00 0.00 82 1015.1
20260506044804 64 112 0.0 2.0 0.00 0.00 0.00 82 1015.2
20260506044704 64 112 0.0 2.0 0.00 0.00 0.00 82 1015.2
20260506044604 64 112 0.0 2.0 0.00 0.00 0.00 82 1015.2
20260506044504 64 115 0.0 2.0 0.00 0.00 0.00 82 1015.2
20260506044404 64 118 0.0 2.0 0.00 0.00 0.00 82 1015.2
20260506044304 64 118 0.0 2.0 0.00 0.00 0.00 82 1015.2
20260506044204 64 119 0.0 2.0 0.00 0.00 0.00 82 1015.2
20260506044104 64 126 0.0 2.0 0.00 0.00 0.00 82 1015.2
20260506044004 64 126 0.0 2.0 0.00 0.00 0.00 82 1015.2
20260506043904 64 126 0.0 2.0 0.00 0.00 0.00 82 1015.2
20260506043804 64 126 0.0 2.0 0.00 0.00 0.00 82 1015.2
20260506043704 64 127 0.0 2.0 0.00 0.00 0.00 82 1015.2
20260506043604 64 127 0.0 2.0 0.00 0.00 0.00 82 1015.2
20260506043504 63 135 0.0 2.0 0.00 0.00 0.00 82 1015.1
20260506043404 64 0 0.0 0.0 0.00 0.00 0.00 82 1015.1
20260506043304 63 0 0.0 0.0 0.00 0.00 0.00 82 1015.1
20260506043204 63 0 0.0 0.0 0.00 0.00 0.00 82 1015.1
20260506043104 63 0 0.0 0.0 0.00 0.00 0.00 82 1015.1
20260506043003 63 0 0.0 0.0 0.00 0.00 0.00 82 1015.1
20260506042903 63 112 0.0 1.0 0.00 0.00 0.00 82 1015.1
20260506042804 63 112 0.0 1.0 0.00 0.00 0.00 82 1015.1
20260506042704 63 112 0.0 1.0 0.00 0.00 0.00 82 1015.1
20260506042603 63 112 0.0 1.0 0.00 0.00 0.00 82 1015.1
20260506042503 63 112 0.0 1.0 0.00 0.00 0.00 82 1015.1
20260506042403 63 112 0.0 1.0 0.00 0.00 0.00 82 1015.1
20260506042305 63 112 0.0 1.0 0.00 0.00 0.00 82 1015.2
20260506042204 63 102 0.0 1.0 0.00 0.00 0.00 82 1015.2
20260506042103 63 96 0.0 2.0 0.00 0.00 0.00 82 1015.1
20260506042003 63 96 0.0 2.0 0.00 0.00 0.00 82 1015.1
20260506041903 63 91 0.0 2.0 0.00 0.00 0.00 82 1015.1
20260506041803 63 91 0.0 2.0 0.00 0.00 0.00 82 1015.2
20260506041703 63 99 0.0 2.0 0.00 0.00 0.00 82 1015.1
20260506041603 63 99 0.0 2.0 0.00 0.00 0.00 82 1015.1
20260506041503 63 100 0.0 2.0 0.00 0.00 0.00 82 1015.1
20260506041403 63 100 0.0 2.0 0.00 0.00 0.00 82 1015.1
20260506041303 63 103 0.0 2.0 0.00 0.00 0.00 82 1015.1
20260506041203 63 106 0.0 2.0 0.00 0.00 0.00 82 1015.1
20260506041103 63 111 0.0 2.0 0.00 0.00 0.00 82 1015.1
20260506041003 63 111 0.0 2.0 0.00 0.00 0.00 82 1015.1
20260506040903 63 111 0.0 2.0 0.00 0.00 0.00 82 1015.1
20260506040803 63 112 0.0 2.0 0.00 0.00 0.00 82 1015.1
20260506040703 63 114 0.0 2.0 0.00 0.00 0.00 82 1015.0
20260506040603 63 114 0.0 2.0 0.00 0.00 0.00 82 1015.1
20260506040503 63 115 0.0 2.0 0.00 0.00 0.00 82 1015.1
20260506040403 63 115 0.0 2.0 0.00 0.00 0.00 82 1015.1
20260506040303 63 116 0.0 2.0 0.00 0.00 0.00 82 1015.0
20260506040203 63 117 0.0 2.0 0.00 0.00 0.00 82 1015.1
20260506040004 63 119 0.0 2.0 0.00 0.00 0.00 82 1015.1
20260506035903 63 119 0.0 2.0 0.00 0.00 0.00 81 1015.0
20260506035803 63 129 0.0 2.0 0.00 0.00 0.00 81 1015.1
20260506035703 63 0 0.0 0.0 0.00 0.00 0.00 81 1015.1
20260506035603 63 112 0.0 3.0 0.00 0.00 0.00 81 1015.0
20260506035503 63 112 0.0 3.0 0.00 0.00 0.00 81 1015.1
20260506035403 63 112 0.0 3.0 0.00 0.00 0.00 81 1015.1
20260506035306 63 110 0.0 3.0 0.00 0.00 0.00 81 1015.1
20260506035203 63 115 0.0 3.0 0.00 0.00 0.00 81 1015.1
20260506035103 63 115 0.0 3.0 0.00 0.00 0.00 81 1015.1
20260506035003 63 115 0.0 3.0 0.00 0.00 0.00 81 1015.1
20260506034903 63 115 0.0 3.0 0.00 0.00 0.00 81 1015.1
20260506034803 63 115 0.0 3.0 0.00 0.00 0.00 81 1015.0
20260506034703 63 115 0.0 3.0 0.00 0.00 0.00 81 1015.1
20260506034603 63 118 0.0 2.0 0.00 0.00 0.00 81 1015.0
20260506034503 63 118 0.0 2.0 0.00 0.00 0.00 81 1015.0
20260506034403 63 118 0.0 2.0 0.00 0.00 0.00 81 1014.9
20260506034303 63 121 0.0 2.0 0.00 0.00 0.00 81 1014.9
20260506034203 63 0 0.0 0.0 0.00 0.00 0.00 81 1014.9
20260506034103 63 0 0.0 0.0 0.00 0.00 0.00 81 1014.8
20260506034003 63 0 0.0 0.0 0.00 0.00 0.00 81 1014.8
20260506033903 63 0 0.0 0.0 0.00 0.00 0.00 81 1014.8
20260506033803 63 0 0.0 0.0 0.00 0.00 0.00 81 1014.9
20260506033703 63 112 0.0 1.0 0.00 0.00 0.00 81 1014.9
20260506033603 63 112 0.0 1.0 0.00 0.00 0.00 81 1015.0
20260506033503 63 112 0.0 1.0 0.00 0.00 0.00 81 1014.8
20260506033403 63 112 0.0 1.0 0.00 0.00 0.00 81 1014.8
20260506033303 63 98 0.0 1.0 0.00 0.00 0.00 81 1014.8
20260506033203 63 98 0.0 1.0 0.00 0.00 0.00 81 1014.9
20260506033103 63 98 0.0 1.0 0.00 0.00 0.00 81 1014.9
20260506033004 63 98 0.0 1.0 0.00 0.00 0.00 81 1014.8
20260506032903 63 87 0.0 1.0 0.00 0.00 0.00 81 1014.8
20260506032803 63 87 0.0 1.0 0.00 0.00 0.00 81 1014.9
20260506032703 63 80 0.0 1.0 0.00 0.00 0.00 81 1014.9
20260506032603 63 33 0.0 1.0 0.00 0.00 0.00 81 1014.8
20260506032503 63 33 0.0 1.0 0.00 0.00 0.00 81 1014.9
20260506032403 63 33 0.0 1.0 0.00 0.00 0.00 81 1015.0
20260506032305 63 67 0.0 1.0 0.00 0.00 0.00 81 1014.9
20260506032203 63 67 0.0 1.0 0.00 0.00 0.00 81 1014.9
20260506032103 63 87 0.0 1.0 0.00 0.00 0.00 81 1014.7
20260506032003 63 103 0.0 2.0 0.00 0.00 0.00 81 1014.8
20260506031903 63 112 0.0 2.0 0.00 0.00 0.00 81 1014.8
20260506031803 63 112 0.0 2.0 0.00 0.00 0.00 81 1014.8
20260506031703 63 112 0.0 2.0 0.00 0.00 0.00 81 1014.8
20260506031603 63 112 0.0 2.0 0.00 0.00 0.00 81 1014.8
20260506031503 63 112 0.0 2.0 0.00 0.00 0.00 81 1014.8
20260506031403 63 112 0.0 2.0 0.00 0.00 0.00 81 1014.7
20260506031303 63 112 0.0 2.0 0.00 0.00 0.00 81 1014.8
20260506031203 63 112 0.0 2.0 0.00 0.00 0.00 81 1014.8
20260506031103 63 112 0.0 2.0 0.00 0.00 0.00 81 1014.8
20260506031003 63 112 0.0 1.0 0.00 0.00 0.00 81 1014.8
20260506030903 63 112 0.0 1.0 0.00 0.00 0.00 81 1014.8
20260506030803 63 112 0.0 1.0 0.00 0.00 0.00 81 1014.7
20260506030703 63 0 0.0 0.0 0.00 0.00 0.00 81 1014.6
20260506030603 63 67 0.0 0.0 0.00 0.00 0.00 81 1014.7
20260506030503 63 86 0.0 1.0 0.00 0.00 0.00 81 1014.8
20260506030403 63 88 0.0 2.0 0.00 0.00 0.00 81 1014.8
20260506030303 63 88 0.0 2.0 0.00 0.00 0.00 81 1014.7
20260506030203 63 88 0.0 2.0 0.00 0.00 0.00 81 1014.8
20260506030103 63 98 0.0 2.0 0.00 0.00 0.00 81 1014.9
20260506030003 63 98 0.0 2.0 0.00 0.00 0.00 81 1014.9
20260506025903 63 98 0.0 2.0 0.00 0.00 0.00 81 1014.9
20260506025803 63 98 0.0 2.0 0.00 0.00 0.00 81 1014.9
20260506025704 63 98 0.0 2.0 0.00 0.00 0.00 81 1014.9
20260506025604 63 100 0.0 2.0 0.00 0.00 0.00 81 1014.9
20260506025504 63 104 0.0 2.0 0.00 0.00 0.00 81 1014.9
20260506025404 63 112 0.0 2.0 0.00 0.00 0.00 81 1014.8
20260506025305 63 112 0.0 2.0 0.00 0.00 0.00 81 1014.8
20260506025204 63 112 0.0 2.0 0.00 0.00 0.00 81 1014.9
20260506025104 63 112 0.0 2.0 0.00 0.00 0.00 81 1014.9
20260506025004 63 292 0.0 1.0 0.00 0.00 0.00 81 1014.9
20260506024904 63 292 0.0 1.0 0.00 0.00 0.00 81 1014.8
20260506024804 63 292 0.0 1.0 0.00 0.00 0.00 81 1014.9
20260506024704 63 292 0.0 1.0 0.00 0.00 0.00 81 1014.8
20260506024604 63 292 0.0 1.0 0.00 0.00 0.00 81 1014.8
20260506024504 63 112 0.0 2.0 0.00 0.00 0.00 81 1014.8
20260506024404 63 112 0.0 3.0 0.00 0.00 0.00 81 1014.8
20260506024304 63 112 0.0 3.0 0.00 0.00 0.00 80 1014.8
20260506024204 63 112 0.0 3.0 0.00 0.00 0.00 80 1014.7
20260506024104 63 112 0.0 3.0 0.00 0.00 0.00 80 1014.8
20260506024004 63 112 0.0 3.0 0.00 0.00 0.00 80 1014.9
20260506023904 63 112 0.0 3.0 0.00 0.00 0.00 80 1014.8
20260506023804 63 112 0.0 3.0 0.00 0.00 0.00 80 1014.9
20260506023704 63 112 0.0 3.0 0.00 0.00 0.00 80 1014.8
20260506023604 63 112 0.0 3.0 0.00 0.00 0.00 80 1014.8
20260506023504 63 112 0.0 3.0 0.00 0.00 0.00 80 1014.8
20260506023404 63 112 0.0 1.0 0.00 0.00 0.00 80 1014.8
20260506023304 63 112 0.0 1.0 0.00 0.00 0.00 80 1014.8
20260506023204 63 112 0.0 1.0 0.00 0.00 0.00 80 1014.9
20260506023104 63 112 0.0 1.0 0.00 0.00 0.00 80 1014.9
20260506023004 63 112 0.0 1.0 0.00 0.00 0.00 80 1014.8
20260506022904 63 112 0.0 1.0 0.00 0.00 0.00 80 1014.9
20260506022804 63 112 0.0 1.0 0.00 0.00 0.00 80 1014.8
20260506022704 63 112 0.0 1.0 0.00 0.00 0.00 80 1014.8
20260506022604 63 112 0.0 1.0 0.00 0.00 0.00 80 1014.8
20260506022504 63 112 0.0 1.0 0.00 0.00 0.00 80 1014.9
20260506022404 63 112 0.0 1.0 0.00 0.00 0.00 80 1014.9
20260506022305 63 112 0.0 1.0 0.00 0.00 0.00 80 1014.9
20260506022204 63 112 0.0 2.0 0.00 0.00 0.00 80 1014.8
20260506022104 63 112 0.0 2.0 0.00 0.00 0.00 80 1014.8
20260506022004 63 112 0.0 2.0 0.00 0.00 0.00 80 1014.9
20260506021904 63 112 0.0 2.0 0.00 0.00 0.00 80 1014.8
20260506021804 63 112 0.0 2.0 0.00 0.00 0.00 80 1014.8
20260506021704 63 112 0.0 2.0 0.00 0.00 0.00 80 1014.9
20260506021603 63 112 0.0 2.0 0.00 0.00 0.00 80 1014.8
20260506021504 63 108 0.0 2.0 0.00 0.00 0.00 80 1014.9
20260506021404 63 111 0.0 2.0 0.00 0.00 0.00 80 1014.8
20260506021303 63 111 0.0 2.0 0.00 0.00 0.00 80 1014.9
20260506021203 64 106 0.0 2.0 0.00 0.00 0.00 80 1014.9
20260506021103 64 106 0.0 2.0 0.00 0.00 0.00 80 1014.9
20260506021003 64 106 0.0 2.0 0.00 0.00 0.00 80 1014.9
20260506020903 64 113 0.0 2.0 0.00 0.00 0.00 80 1014.9
20260506020803 64 113 0.0 2.0 0.00 0.00 0.00 80 1015.0
20260506020703 64 113 0.0 2.0 0.00 0.00 0.00 79 1015.0
20260506020603 64 113 0.0 2.0 0.00 0.00 0.00 80 1014.8
20260506020503 64 114 0.0 2.0 0.00 0.00 0.00 79 1014.9
20260506020403 64 115 0.0 2.0 0.00 0.00 0.00 79 1015.1
20260506020303 64 115 0.0 2.0 0.00 0.00 0.00 79 1014.9
20260506020203 64 119 0.0 2.0 0.00 0.00 0.00 79 1014.9
20260506020103 64 118 0.0 2.0 0.00 0.00 0.00 79 1015.1
20260506020004 64 118 0.0 2.0 0.00 0.00 0.00 79 1015.1
20260506015903 64 112 0.0 2.0 0.00 0.00 0.00 79 1015.1
20260506015803 64 112 0.0 2.0 0.00 0.00 0.00 79 1015.0
20260506015703 64 112 0.0 2.0 0.00 0.00 0.00 79 1015.1
20260506015603 64 108 0.0 6.0 0.00 0.00 0.00 79 1015.1
20260506015503 64 109 0.0 6.0 0.00 0.00 0.00 79 1015.2
20260506015403 64 109 0.0 6.0 0.00 0.00 0.00 79 1015.1
20260506015305 64 107 0.0 6.0 0.00 0.00 0.00 79 1015.0
20260506015203 64 105 0.0 6.0 0.00 0.00 0.00 79 1015.1
20260506015103 64 104 0.0 6.0 0.00 0.00 0.00 79 1015.1
20260506015003 64 104 0.0 6.0 0.00 0.00 0.00 79 1015.1
20260506014903 64 104 0.0 6.0 0.00 0.00 0.00 79 1015.1
20260506014803 64 112 0.0 6.0 0.00 0.00 0.00 79 1015.1
20260506014703 64 112 0.0 6.0 0.00 0.00 0.00 79 1015.2
20260506014603 64 114 0.0 6.0 0.00 0.00 0.00 79 1015.1
20260506014503 64 115 0.0 3.0 0.00 0.00 0.00 79 1015.1
20260506014403 64 115 0.0 3.0 0.00 0.00 0.00 79 1015.0
20260506014303 64 116 0.0 3.0 0.00 0.00 0.00 79 1015.1
20260506014203 64 116 0.0 3.0 0.00 0.00 0.00 79 1015.1
20260506014103 64 116 0.0 3.0 0.00 0.00 0.00 79 1015.1
20260506014003 64 113 0.0 3.0 0.00 0.00 0.00 79 1015.1
20260506013903 64 113 0.0 3.0 0.00 0.00 0.00 79 1015.1
20260506013803 64 109 0.0 3.0 0.00 0.00 0.00 79 1015.0
20260506013703 64 109 0.0 3.0 0.00 0.00 0.00 79 1015.1
20260506013603 64 107 0.0 3.0 0.00 0.00 0.00 79 1015.1
20260506013503 64 107 0.0 3.0 0.00 0.00 0.00 79 1015.1
20260506013403 64 108 0.0 3.0 0.00 0.00 0.00 79 1015.1
20260506013303 64 108 0.0 3.0 0.00 0.00 0.00 79 1015.1
20260506013203 64 106 0.0 3.0 0.00 0.00 0.00 79 1015.2
20260506013103 64 105 0.0 3.0 0.00 0.00 0.00 79 1015.1
20260506013003 64 112 0.0 2.0 0.00 0.00 0.00 79 1015.1
20260506012903 64 94 0.0 6.0 0.00 0.00 0.00 79 1015.1
20260506012803 64 96 0.0 6.0 0.00 0.00 0.00 79 1015.1
20260506012703 64 98 0.0 6.0 0.00 0.00 0.00 79 1015.1
20260506012603 64 98 0.0 6.0 0.00 0.00 0.00 79 1015.2
20260506012503 64 98 0.0 6.0 0.00 0.00 0.00 79 1015.2
20260506012403 64 96 0.0 6.0 0.00 0.00 0.00 80 1015.2
20260506012307 64 96 0.0 6.0 0.00 0.00 0.00 80 1015.2
20260506012203 64 96 0.0 6.0 0.00 0.00 0.00 80 1015.1
20260506012103 64 96 0.0 6.0 0.00 0.00 0.00 80 1015.2
20260506012003 64 94 0.0 6.0 0.00 0.00 0.00 80 1015.2
20260506011903 64 112 0.0 2.0 0.00 0.00 0.00 80 1015.2
20260506011803 64 112 0.0 2.0 0.00 0.00 0.00 80 1015.2
20260506011703 64 112 0.0 2.0 0.00 0.00 0.00 80 1015.3
20260506011603 64 112 0.0 2.0 0.00 0.00 0.00 80 1015.3
20260506011503 64 112 0.0 2.0 0.00 0.00 0.00 80 1015.3
20260506011403 64 112 0.0 2.0 0.00 0.00 0.00 80 1015.3
20260506011303 64 112 0.0 2.0 0.00 0.00 0.00 80 1015.3
20260506011203 64 112 0.0 2.0 0.00 0.00 0.00 80 1015.3
20260506011103 64 112 0.0 2.0 0.00 0.00 0.00 80 1015.3
20260506011003 64 112 0.0 2.0 0.00 0.00 0.00 80 1015.3
20260506010903 64 112 0.0 2.0 0.00 0.00 0.00 80 1015.3
20260506010803 64 107 0.0 2.0 0.00 0.00 0.00 80 1015.2
20260506010703 64 105 0.0 2.0 0.00 0.00 0.00 80 1015.2
20260506010603 64 101 0.0 2.0 0.00 0.00 0.00 80 1015.3
20260506010503 64 101 0.0 2.0 0.00 0.00 0.00 80 1015.2
20260506010403 64 107 0.0 2.0 0.00 0.00 0.00 80 1015.2
20260506010303 64 102 0.0 2.0 0.00 0.00 0.00 80 1015.2
20260506010203 64 315 0.0 2.0 0.00 0.00 0.00 80 1015.3
20260506010103 64 305 0.0 2.0 0.00 0.00 0.00 80 1015.3
20260506010003 64 305 0.0 2.0 0.00 0.00 0.00 80 1015.3
20260506005903 64 305 0.0 2.0 0.00 0.00 0.00 80 1015.3
20260506005803 64 124 0.0 1.0 0.00 0.00 0.00 80 1015.4
20260506005703 64 124 0.0 1.0 0.00 0.00 0.00 80 1015.3
20260506005603 64 114 0.0 3.0 0.00 0.00 0.00 80 1015.2
20260506005503 64 114 0.0 3.0 0.00 0.00 0.00 80 1015.3
20260506005403 64 110 0.0 3.0 0.00 0.00 0.00 80 1015.3
20260506005305 64 106 0.0 4.0 0.00 0.00 0.00 80 1015.3
20260506005203 64 106 0.0 4.0 0.00 0.00 0.00 80 1015.3
20260506005103 64 106 0.0 4.0 0.00 0.00 0.00 81 1015.3
20260506005003 64 107 0.0 4.0 0.00 0.00 0.00 81 1015.4
20260506004903 64 107 0.0 4.0 0.00 0.00 0.00 81 1015.4
20260506004803 64 108 0.0 4.0 0.00 0.00 0.00 81 1015.3
20260506004703 64 106 0.0 4.0 0.00 0.00 0.00 81 1015.4
20260506004603 64 109 0.0 4.0 0.00 0.00 0.00 81 1015.4
20260506004503 64 109 0.0 4.0 0.00 0.00 0.00 81 1015.4
20260506004403 64 109 0.0 4.0 0.00 0.00 0.00 81 1015.4
20260506004303 64 113 0.0 4.0 0.00 0.00 0.00 81 1015.5
20260506004203 64 113 0.0 4.0 0.00 0.00 0.00 81 1015.4
20260506004104 64 113 0.0 4.0 0.00 0.00 0.00 81 1015.5
20260506004004 64 113 0.0 4.0 0.00 0.00 0.00 81 1015.5
20260506003904 64 113 0.0 4.0 0.00 0.00 0.00 81 1015.5
20260506003804 64 113 0.0 4.0 0.00 0.00 0.00 81 1015.6
20260506003704 64 117 0.0 4.0 0.00 0.00 0.00 81 1015.5
20260506003604 64 112 0.0 2.0 0.00 0.00 0.00 81 1015.5
20260506003504 64 112 0.0 2.0 0.00 0.00 0.00 81 1015.4
20260506003404 64 112 0.0 2.0 0.00 0.00 0.00 81 1015.4
20260506003304 64 112 0.0 2.0 0.00 0.00 0.00 81 1015.4
20260506003204 64 0 0.0 0.0 0.00 0.00 0.00 81 1015.3
20260506003104 64 0 0.0 0.0 0.00 0.00 0.00 81 1015.4
20260506003004 64 0 0.0 0.0 0.00 0.00 0.00 81 1015.5
20260506002904 64 0 0.0 0.0 0.00 0.00 0.00 81 1015.6
20260506002804 64 270 0.0 2.0 0.00 0.00 0.00 81 1015.6
20260506002704 64 248 0.0 2.0 0.00 0.00 0.00 81 1015.6
20260506002604 64 248 0.0 2.0 0.00 0.00 0.00 81 1015.6
20260506002504 64 218 0.0 2.0 0.00 0.00 0.00 81 1015.7
20260506002404 64 118 0.0 4.0 0.00 0.00 0.00 81 1015.6
20260506002306 64 113 0.0 4.0 0.00 0.00 0.00 81 1015.7
20260506002204 64 113 0.0 4.0 0.00 0.00 0.00 81 1015.5
20260506002104 64 113 0.0 4.0 0.00 0.00 0.00 81 1015.6
20260506002004 64 113 0.0 4.0 0.00 0.00 0.00 81 1015.6
20260506001904 64 114 0.0 4.0 0.00 0.00 0.00 81 1015.6
20260506001804 64 112 0.0 4.0 0.00 0.00 0.00 81 1015.6
20260506001704 64 109 0.0 4.0 0.00 0.00 0.00 81 1015.6
20260506001604 64 109 0.0 4.0 0.00 0.00 0.00 81 1015.5
20260506001504 64 109 0.0 4.0 0.00 0.00 0.00 81 1015.6
20260506001404 64 108 0.0 3.0 0.00 0.00 0.00 80 1015.7
20260506001304 64 109 0.0 3.0 0.00 0.00 0.00 80 1015.6
20260506001204 64 109 0.0 3.0 0.00 0.00 0.00 80 1015.6
20260506001104 64 108 0.0 2.0 0.00 0.00 0.00 80 1015.5
20260506001004 64 108 0.0 2.0 0.00 0.00 0.00 80 1015.5
20260506000904 64 103 0.0 2.0 0.00 0.00 0.00 80 1015.6
20260506000804 64 103 0.0 2.0 0.00 0.00 0.00 80 1015.5
20260506000704 64 112 0.0 1.0 0.00 0.00 0.00 80 1015.6
20260506000604 64 0 0.0 0.0 0.00 0.00 0.00 80 1015.5
20260506000504 64 0 0.0 0.0 0.00 0.00 0.00 80 1015.6
20260506000404 64 0 0.0 0.0 0.00 0.00 0.00 80 1015.6
20260506000304 64 0 0.0 0.0 0.00 0.00 0.00 80 1015.6
20260506000205 64 0 0.0 0.0 0.00 0.00 0.00 80 1015.6
20260506000104 64 0 0.0 0.0 0.00 0.00 0.00 80 1015.5
20260506000004 64 0 0.0 0.0 0.00 0.00 0.00 80 1015.5
20260505235903 64 0 0.0 0.0 0.00 0.00 0.00 80 1015.5
20260505235804 64 0 0.0 0.0 0.00 0.00 0.00 80 1015.7
20260505235703 64 0 0.0 0.0 0.00 0.00 0.00 80 1015.6
20260505235604 64 0 0.0 0.0 0.00 0.00 0.00 80 1015.5
20260505235503 64 0 0.0 0.0 0.00 0.00 0.00 80 1015.5
20260505235404 64 0 0.0 0.0 0.00 0.00 0.00 80 1015.6
20260505235305 64 0 0.0 0.0 0.00 0.00 0.00 80 1015.5
20260505235203 64 0 0.0 0.0 0.00 0.00 0.00 80 1015.5
20260505235104 64 112 0.0 3.0 0.00 0.00 0.00 80 1015.5
20260505235003 64 112 0.0 3.0 0.00 0.00 0.00 80 1015.5
20260505234903 64 112 0.0 3.0 0.00 0.00 0.00 80 1015.6
20260505234803 64 112 0.0 3.0 0.00 0.00 0.00 80 1015.6
20260505234703 64 112 0.0 3.0 0.00 0.00 0.00 80 1015.6
20260505234603 64 112 0.0 3.0 0.00 0.00 0.00 80 1015.5
20260505234503 64 112 0.0 3.0 0.00 0.00 0.00 80 1015.5
20260505234403 64 112 0.0 3.0 0.00 0.00 0.00 80 1015.6
20260505234303 64 116 0.0 3.0 0.00 0.00 0.00 80 1015.7
20260505234203 64 114 0.0 4.0 0.00 0.00 0.00 80 1015.7
20260505234103 64 113 0.0 4.0 0.00 0.00 0.00 80 1015.6
20260505234003 64 113 0.0 4.0 0.00 0.00 0.00 80 1015.6
20260505233903 64 109 0.0 4.0 0.00 0.00 0.00 80 1015.6
20260505233803 64 109 0.0 4.0 0.00 0.00 0.00 80 1015.7
20260505233703 64 109 0.0 4.0 0.00 0.00 0.00 80 1015.8
20260505233603 64 109 0.0 4.0 0.00 0.00 0.00 80 1015.8
20260505233503 64 109 0.0 4.0 0.00 0.00 0.00 80 1015.8
20260505233403 64 109 0.0 4.0 0.00 0.00 0.00 80 1015.7
20260505233303 64 110 0.0 4.0 0.00 0.00 0.00 80 1015.7
20260505233203 64 103 0.0 2.0 0.00 0.00 0.00 80 1015.8
20260505233103 64 103 0.0 2.0 0.00 0.00 0.00 80 1015.8
20260505233003 64 99 0.0 2.0 0.00 0.00 0.00 80 1015.7
20260505232903 64 112 0.0 2.0 0.00 0.00 0.00 80 1015.8
20260505232803 64 112 0.0 2.0 0.00 0.00 0.00 80 1015.8
20260505232703 64 111 0.0 2.0 0.00 0.00 0.00 80 1015.8
20260505232603 64 111 0.0 2.0 0.00 0.00 0.00 80 1015.8
20260505232503 64 111 0.0 2.0 0.00 0.00 0.00 80 1015.7
20260505232403 64 111 0.0 2.0 0.00 0.00 0.00 80 1015.8
20260505232305 64 111 0.0 2.0 0.00 0.00 0.00 80 1015.8
20260505232203 64 111 0.0 3.0 0.00 0.00 0.00 80 1015.7
20260505232103 64 111 0.0 3.0 0.00 0.00 0.00 80 1015.7
20260505232003 64 111 0.0 3.0 0.00 0.00 0.00 80 1015.7
20260505231903 64 111 0.0 3.0 0.00 0.00 0.00 80 1015.7
20260505231803 64 111 0.0 3.0 0.00 0.00 0.00 80 1015.8
20260505231703 64 112 0.0 3.0 0.00 0.00 0.00 80 1015.8
20260505231603 64 112 0.0 3.0 0.00 0.00 0.00 80 1015.9
20260505231503 64 112 0.0 3.0 0.00 0.00 0.00 80 1015.9
20260505231403 64 106 0.0 5.0 0.00 0.00 0.00 80 1015.9
20260505231303 64 104 0.0 5.0 0.00 0.00 0.00 80 1015.9
20260505231204 64 98 0.0 5.0 0.00 0.00 0.00 80 1015.9
20260505231004 64 112 0.0 5.0 0.00 0.00 0.00 80 1015.9
20260505230904 64 112 0.0 5.0 0.00 0.00 0.00 80 1016.0
20260505230804 64 112 0.0 5.0 0.00 0.00 0.00 80 1016.0
20260505230704 64 112 0.0 5.0 0.00 0.00 0.00 80 1016.0
20260505230604 64 100 0.0 5.0 0.00 0.00 0.00 80 1016.0
20260505230504 64 101 0.0 5.0 0.00 0.00 0.00 80 1015.9
20260505230404 64 98 0.0 5.0 0.00 0.00 0.00 80 1016.1
20260505230304 64 87 0.0 4.0 0.00 0.00 0.00 80 1016.0
20260505230204 64 87 0.0 4.0 0.00 0.00 0.00 80 1016.1
20260505230104 64 87 0.0 4.0 0.00 0.00 0.00 80 1016.1
20260505230004 64 87 0.0 4.0 0.00 0.00 0.00 80 1016.1
20260505225904 64 87 0.0 4.0 0.00 0.00 0.00 80 1016.1
20260505225804 64 87 0.0 4.0 0.00 0.00 0.00 80 1016.1
20260505225704 64 96 0.0 4.0 0.00 0.00 0.00 80 1016.1
20260505225604 64 112 0.0 3.0 0.00 0.00 0.00 80 1016.1
20260505225504 64 112 0.0 4.0 0.00 0.00 0.00 80 1016.1
20260505225404 64 112 0.0 4.0 0.00 0.00 0.00 80 1016.2
20260505225305 64 112 0.0 4.0 0.00 0.00 0.00 80 1016.1
20260505225204 64 112 0.0 4.0 0.00 0.00 0.00 80 1016.1
20260505225104 64 112 0.0 4.0 0.00 0.00 0.00 80 1016.2
20260505225004 64 112 0.0 4.0 0.00 0.00 0.00 80 1016.2
20260505224904 64 112 0.0 4.0 0.00 0.00 0.00 80 1016.2
20260505224804 64 112 0.0 4.0 0.00 0.00 0.00 80 1016.2
20260505224703 64 112 0.0 4.0 0.00 0.00 0.00 80 1016.3
20260505224603 64 112 0.0 6.0 0.00 0.00 0.00 80 1016.3
20260505224504 64 112 0.0 6.0 0.00 0.00 0.00 80 1016.3
20260505224404 64 112 0.0 6.0 0.00 0.00 0.00 80 1016.3
20260505224304 64 112 0.0 6.0 0.00 0.00 0.00 80 1016.3
20260505224204 64 112 0.0 6.0 0.00 0.00 0.00 80 1016.3
20260505224103 64 112 0.0 6.0 0.00 0.00 0.00 80 1016.2
20260505224004 64 112 0.0 6.0 0.00 0.00 0.00 80 1016.3
20260505223904 64 112 0.0 6.0 0.00 0.00 0.00 80 1016.3
20260505223803 64 112 0.0 6.0 0.00 0.00 0.00 80 1016.3
20260505223703 64 112 0.0 6.0 0.00 0.00 0.00 80 1016.3
20260505223603 64 112 0.0 4.0 0.00 0.00 0.00 80 1016.3
20260505223503 64 112 0.0 4.0 0.00 0.00 0.00 80 1016.4
20260505223403 64 112 0.0 4.0 0.00 0.00 0.00 80 1016.4
20260505223303 64 112 0.0 4.0 0.00 0.00 0.00 80 1016.4
20260505223203 64 0 0.0 0.0 0.00 0.00 0.00 80 1016.4
20260505223103 64 0 0.0 0.0 0.00 0.00 0.00 80 1016.4
20260505223003 64 0 0.0 0.0 0.00 0.00 0.00 80 1016.4
20260505222903 64 0 0.0 0.0 0.00 0.00 0.00 80 1016.4
20260505222803 64 0 0.0 0.0 0.00 0.00 0.00 80 1016.3
20260505222703 64 0 0.0 0.0 0.00 0.00 0.00 80 1016.4
20260505222603 64 0 0.0 0.0 0.00 0.00 0.00 80 1016.4
20260505222503 64 112 0.0 0.0 0.00 0.00 0.00 80 1016.4
20260505222403 64 112 0.0 0.0 0.00 0.00 0.00 80 1016.5
20260505222305 64 112 0.0 2.0 0.00 0.00 0.00 80 1016.5
20260505222203 64 120 0.0 4.0 0.00 0.00 0.00 80 1016.4
20260505222103 64 120 0.0 4.0 0.00 0.00 0.00 80 1016.4
20260505222003 64 120 0.0 4.0 0.00 0.00 0.00 80 1016.4
20260505221903 64 120 0.0 4.0 0.00 0.00 0.00 80 1016.5
20260505221803 64 120 0.0 4.0 0.00 0.00 0.00 80 1016.5
20260505221703 64 120 0.0 4.0 0.00 0.00 0.00 80 1016.5
20260505221604 64 118 0.0 4.0 0.00 0.00 0.00 80 1016.5
20260505221503 64 118 0.0 4.0 0.00 0.00 0.00 80 1016.5
20260505221403 64 118 0.0 4.0 0.00 0.00 0.00 80 1016.5
20260505221303 64 118 0.0 4.0 0.00 0.00 0.00 80 1016.5
20260505221203 64 108 0.0 4.0 0.00 0.00 0.00 80 1016.5
20260505221103 64 108 0.0 4.0 0.00 0.00 0.00 80 1016.4
20260505221003 64 108 0.0 4.0 0.00 0.00 0.00 80 1016.4
20260505220903 64 108 0.0 4.0 0.00 0.00 0.00 80 1016.4
20260505220803 64 108 0.0 4.0 0.00 0.00 0.00 80 1016.4
20260505220703 64 108 0.0 4.0 0.00 0.00 0.00 80 1016.6
20260505220603 64 112 0.0 4.0 0.00 0.00 0.00 80 1016.5
20260505220503 64 112 0.0 4.0 0.00 0.00 0.00 80 1016.4
20260505220403 64 112 0.0 4.0 0.00 0.00 0.00 80 1016.5
20260505220303 64 112 0.0 1.0 0.00 0.00 0.00 80 1016.5
20260505220203 64 112 0.0 1.0 0.00 0.00 0.00 80 1016.5
20260505220103 64 0 0.0 0.0 0.00 0.00 0.00 80 1016.5
20260505220039 64 0 0.0 0.0 0.00 0.00 0.00 80 1016.5
20260505215903 64 0 0.0 0.0 0.00 0.00 0.00 79 1016.6
20260505215803 64 0 0.0 0.0 0.00 0.00 0.00 80 1016.5
20260505215703 64 0 0.0 0.0 0.00 0.00 0.00 80 1016.5
20260505215603 64 0 0.0 0.0 0.00 0.00 0.00 80 1016.6
20260505215503 64 0 0.0 0.0 0.00 0.00 0.00 79 1016.6
20260505215403 64 0 0.0 0.0 0.00 0.00 0.00 79 1016.7
20260505215305 64 0 0.0 0.0 0.00 0.00 0.00 79 1016.7
20260505215203 64 90 0.0 3.0 0.00 0.00 0.00 79 1016.6
20260505215103 64 90 0.0 3.0 0.00 0.00 0.00 79 1016.8
20260505215003 64 90 0.0 3.0 0.00 0.00 0.00 79 1016.8
20260505214903 64 90 0.0 3.0 0.00 0.00 0.00 79 1016.8
20260505214803 64 90 0.0 3.0 0.00 0.00 0.00 79 1016.7
20260505214703 64 90 0.0 3.0 0.00 0.00 0.00 79 1016.6
20260505214603 64 90 0.0 3.0 0.00 0.00 0.00 79 1016.7
20260505214503 64 90 0.0 3.0 0.00 0.00 0.00 79 1016.6
20260505214403 64 90 0.0 3.0 0.00 0.00 0.00 79 1016.8
20260505214303 64 90 0.0 3.0 0.00 0.00 0.00 79 1016.8
20260505214203 64 90 0.0 1.0 0.00 0.00 0.00 79 1016.8
20260505214103 64 90 0.0 1.0 0.00 0.00 0.00 79 1016.7
20260505214003 64 90 0.0 1.0 0.00 0.00 0.00 79 1016.8
20260505213903 64 90 0.0 1.0 0.00 0.00 0.00 79 1016.8
20260505213803 64 112 0.0 2.0 0.00 0.00 0.00 79 1016.7
20260505213703 64 112 0.0 2.0 0.00 0.00 0.00 79 1016.7
20260505213603 64 93 0.0 3.0 0.00 0.00 0.00 79 1016.7
20260505213503 64 93 0.0 3.0 0.00 0.00 0.00 79 1016.7
20260505213403 64 93 0.0 3.0 0.00 0.00 0.00 79 1016.7
20260505213303 64 92 0.0 3.0 0.00 0.00 0.00 79 1016.7
20260505213203 64 92 0.0 3.0 0.00 0.00 0.00 79 1016.8
20260505213103 64 98 0.0 3.0 0.00 0.00 0.00 79 1016.7
20260505213003 64 99 0.0 3.0 0.00 0.00 0.00 79 1016.6
20260505212903 64 102 0.0 3.0 0.00 0.00 0.00 79 1016.7
20260505212803 64 103 0.0 3.0 0.00 0.00 0.00 79 1016.8
20260505212703 64 102 0.0 3.0 0.00 0.00 0.00 79 1016.7
20260505212603 64 110 0.0 2.0 0.00 0.00 0.00 79 1016.8
20260505212503 64 110 0.0 2.0 0.00 0.00 0.00 79 1016.7
20260505212403 64 110 0.0 2.0 0.00 0.00 0.00 79 1016.6
20260505212305 64 115 0.0 2.0 0.00 0.00 0.00 79 1016.7
20260505212203 64 115 0.0 2.0 0.00 0.00 0.00 79 1016.6
20260505212103 64 118 0.0 2.0 0.00 0.00 0.00 79 1016.6
20260505212003 64 125 0.0 2.0 0.00 0.00 0.00 79 1016.8
20260505211903 64 112 0.0 2.0 0.00 0.00 0.00 79 1016.7
20260505211803 64 112 0.0 3.0 0.00 0.00 0.00 79 1016.8
20260505211703 64 112 0.0 3.0 0.00 0.00 0.00 79 1016.8
20260505211603 64 112 0.0 3.0 0.00 0.00 0.00 79 1016.7
20260505211503 64 112 0.0 3.0 0.00 0.00 0.00 79 1016.6
20260505211403 64 112 0.0 3.0 0.00 0.00 0.00 79 1016.7
20260505211303 64 112 0.0 3.0 0.00 0.00 0.00 79 1016.7
20260505211203 64 112 0.0 3.0 0.00 0.00 0.00 79 1016.6
20260505211103 64 112 0.0 3.0 0.00 0.00 0.00 79 1016.6
20260505211003 64 112 0.0 3.0 0.00 0.00 0.00 79 1016.6
20260505210903 64 112 0.0 3.0 0.00 0.00 0.00 79 1016.7
20260505210803 64 112 0.0 1.0 0.00 0.00 0.00 79 1016.8
20260505210703 64 112 0.0 2.0 0.00 0.00 0.00 79 1016.6
20260505210603 64 112 0.0 2.0 0.00 0.00 0.00 79 1016.7
20260505210503 64 112 0.0 2.0 0.00 0.00 0.00 79 1016.6
20260505210404 64 112 0.0 2.0 0.00 0.00 0.00 79 1016.6
20260505210303 64 112 0.0 2.0 0.00 0.00 0.00 79 1016.6
20260505210203 64 112 0.0 2.0 0.00 0.00 0.00 79 1016.6
20260505210003 64 112 0.0 2.0 0.00 0.00 0.00 79 1016.6
20260505205903 64 112 0.0 2.0 0.00 0.00 0.00 79 1016.6
20260505205803 64 112 0.0 2.0 0.00 0.00 0.00 79 1016.6
20260505205704 64 112 0.0 1.0 0.00 0.00 0.00 79 1016.7
20260505205604 64 112 0.0 1.0 0.00 0.00 0.00 79 1016.7
20260505205504 64 112 0.0 1.0 0.00 0.00 0.00 79 1016.7
20260505205404 64 112 0.0 1.0 0.00 0.00 0.00 79 1016.7
20260505205305 64 112 0.0 1.0 0.00 0.00 0.00 79 1016.8
20260505205204 64 120 0.0 2.0 0.00 0.00 0.00 79 1016.8
20260505205104 64 120 0.0 2.0 0.00 0.00 0.00 79 1016.8
20260505205004 64 120 0.0 2.0 0.00 0.00 0.00 79 1016.7
20260505204904 64 120 0.0 2.0 0.00 0.00 0.00 79 1016.8
20260505204804 64 120 0.0 2.0 0.00 0.00 0.00 79 1016.8
20260505204704 64 120 0.0 2.0 0.00 0.00 0.00 79 1016.8
20260505204604 64 120 0.0 2.0 0.00 0.00 0.00 79 1016.7
20260505204504 64 120 0.0 2.0 0.00 0.00 0.00 79 1016.7
20260505204404 64 115 0.0 3.0 0.00 0.00 0.00 79 1016.8
20260505204304 64 115 0.0 3.0 0.00 0.00 0.00 79 1016.8
20260505204204 64 112 0.0 3.0 0.00 0.00 0.00 79 1016.8
20260505204104 64 112 0.0 3.0 0.00 0.00 0.00 79 1016.8
20260505204004 64 112 0.0 3.0 0.00 0.00 0.00 79 1016.8
20260505203904 64 112 0.0 3.0 0.00 0.00 0.00 79 1016.8
20260505203804 64 112 0.0 3.0 0.00 0.00 0.00 79 1016.8
20260505203704 64 112 0.0 3.0 0.00 0.00 0.00 79 1016.8
20260505203604 64 112 0.0 3.0 0.00 0.00 0.00 79 1016.8
20260505203504 64 112 0.0 3.0 0.00 0.00 0.00 79 1016.8
20260505203404 64 112 0.0 2.0 0.00 0.00 0.00 79 1016.8
20260505203304 64 112 0.0 2.0 0.00 0.00 0.00 79 1016.8
20260505203204 64 112 0.0 2.0 0.00 0.00 0.00 79 1016.8
20260505203104 64 112 0.0 2.0 0.00 0.00 0.00 79 1016.8
20260505203004 64 112 0.0 2.0 0.00 0.00 0.00 79 1016.9
20260505202904 64 112 0.0 2.0 0.00 0.00 0.00 79 1016.9
20260505202804 64 112 0.0 2.0 0.00 0.00 0.00 79 1016.8
20260505202704 64 112 0.0 2.0 0.00 0.00 0.00 79 1016.8
20260505202604 64 112 0.0 2.0 0.00 0.00 0.00 79 1016.8
20260505202504 64 112 0.0 2.0 0.00 0.00 0.00 79 1016.9
20260505202404 64 112 0.0 2.0 0.00 0.00 0.00 79 1016.8
20260505202306 64 112 0.0 2.0 0.00 0.00 0.00 79 1016.9
20260505202204 64 112 0.0 2.0 0.00 0.00 0.00 79 1016.9
20260505202104 64 112 0.0 2.0 0.00 0.00 0.00 79 1016.8
20260505202004 64 112 0.0 2.0 0.00 0.00 0.00 79 1016.8
20260505201903 64 112 0.0 2.0 0.00 0.00 0.00 79 1016.8
20260505201804 64 112 0.0 2.0 0.00 0.00 0.00 79 1016.8
20260505201704 64 112 0.0 2.0 0.00 0.00 0.00 79 1016.8
20260505201604 64 112 0.0 2.0 0.00 0.00 0.00 79 1016.9
20260505201504 64 112 0.0 2.0 0.00 0.00 0.00 79 1016.8
20260505201404 65 112 0.0 2.0 0.00 0.00 0.00 79 1016.9
20260505201303 64 112 0.0 2.0 0.00 0.00 0.00 79 1016.8
20260505201203 64 112 0.0 1.0 0.00 0.00 0.00 79 1016.8
20260505201103 64 112 0.0 2.0 0.00 0.00 0.00 79 1016.9
20260505201003 64 112 0.0 2.0 0.00 0.00 0.00 79 1016.8
20260505200903 64 112 0.0 2.0 0.00 0.00 0.00 79 1016.9
20260505200803 64 112 0.0 2.0 0.00 0.00 0.00 79 1016.9
20260505200703 64 112 0.0 2.0 0.00 0.00 0.00 79 1016.9
20260505200603 65 112 0.0 2.0 0.00 0.00 0.00 79 1016.9
20260505200503 65 112 0.0 2.0 0.00 0.00 0.00 79 1016.9
20260505200403 65 112 0.0 2.0 0.00 0.00 0.00 79 1016.9
20260505200303 65 112 0.0 2.0 0.00 0.00 0.00 79 1016.8
20260505200203 65 112 0.0 2.0 0.00 0.00 0.00 79 1017.0
20260505200103 65 112 0.0 2.0 0.00 0.00 0.00 79 1017.0
20260505200003 65 112 0.0 2.0 0.00 0.00 0.00 79 1017.0
20260505195903 65 112 0.0 2.0 0.00 0.00 0.00 79 1017.1
20260505195803 65 112 0.0 2.0 0.00 0.00 0.00 79 1017.1
20260505195703 65 112 0.0 2.0 0.00 0.00 0.00 79 1017.2
20260505195603 65 112 0.0 4.0 0.00 0.00 0.00 79 1017.1
20260505195503 65 112 0.0 4.0 0.00 0.00 0.00 79 1017.1
20260505195403 65 111 0.0 4.0 0.00 0.00 0.00 78 1017.2
20260505195305 65 111 0.0 4.0 0.00 0.00 0.00 78 1017.2
20260505195203 65 111 0.0 4.0 0.00 0.00 0.00 78 1017.2
20260505195103 65 110 0.0 4.0 0.00 0.00 0.00 78 1017.2
20260505195003 65 110 0.0 4.0 0.00 0.00 0.00 78 1017.2
20260505194903 65 108 0.0 4.0 0.00 0.00 0.00 78 1017.2
20260505194803 65 108 0.0 4.0 0.00 0.00 0.00 78 1017.1
20260505194703 65 106 0.0 4.0 0.00 0.00 0.00 78 1017.2
20260505194603 65 90 0.0 1.0 0.00 0.00 0.00 78 1017.3
20260505194503 65 103 0.0 1.0 0.00 0.00 0.00 78 1017.2
20260505194403 65 107 0.0 1.0 0.00 0.00 0.00 78 1017.2
20260505194303 65 107 0.0 1.0 0.00 0.00 0.00 78 1017.2
20260505194203 65 107 0.0 1.0 0.00 0.00 0.00 78 1017.1
20260505194103 65 107 0.0 1.0 0.00 0.00 0.00 78 1017.2
20260505194003 65 107 0.0 1.0 0.00 0.00 0.00 78 1017.2
20260505193903 65 112 0.0 1.0 0.00 0.00 0.00 78 1017.2
20260505193803 65 112 0.0 1.0 0.00 0.00 0.00 78 1017.2
20260505193703 65 112 0.0 1.0 0.00 0.00 0.00 78 1017.2
20260505193603 65 112 0.0 1.0 0.00 0.00 0.00 78 1017.1
20260505193503 65 112 0.0 1.0 0.00 0.00 0.00 78 1017.2
20260505193403 65 112 0.0 1.0 0.00 0.00 0.00 78 1017.2
20260505193303 65 112 0.0 1.0 0.00 0.00 0.00 78 1017.2
20260505193203 65 112 0.0 1.0 0.00 0.00 0.00 78 1017.2
20260505193103 65 112 0.0 1.0 0.00 0.00 0.00 78 1017.2
20260505193003 65 112 0.0 1.0 0.00 0.00 0.00 78 1017.2
20260505192903 65 112 0.0 1.0 0.00 0.00 0.00 78 1017.2
20260505192803 65 112 0.0 1.0 0.00 0.00 0.00 78 1017.2
20260505192703 65 112 0.0 1.0 0.00 0.00 0.00 78 1017.2
20260505192603 65 112 0.0 1.0 0.00 0.00 0.00 78 1017.3
20260505192503 65 112 0.0 1.0 0.00 0.00 0.00 78 1017.3
20260505192403 65 112 0.0 1.0 0.00 0.00 0.00 77 1017.2
20260505192305 65 112 0.0 1.0 0.00 0.00 0.00 77 1017.3
20260505192203 65 112 0.0 1.0 0.00 0.00 0.00 77 1017.3
20260505192103 65 0 0.0 0.0 0.00 0.00 0.00 77 1017.2
20260505192003 65 0 0.0 0.0 0.00 0.00 0.00 77 1017.3
20260505191903 65 0 0.0 0.0 0.00 0.00 0.00 78 1017.3
20260505191803 65 0 0.0 0.0 0.00 0.00 0.00 78 1017.2
20260505191703 65 0 0.0 0.0 0.00 0.00 0.00 78 1017.2
20260505191603 65 0 0.0 0.0 0.00 0.00 0.00 78 1017.2
20260505191503 65 0 0.0 0.0 0.00 0.00 0.00 78 1017.2
20260505191403 65 0 0.0 0.0 0.00 0.00 0.00 78 1017.1
20260505191303 65 0 0.0 0.0 0.00 0.00 0.00 78 1017.2
20260505191203 65 112 0.0 1.0 0.00 0.00 0.00 78 1017.1
20260505191103 65 112 0.0 1.0 0.00 0.00 0.00 78 1017.1
20260505191003 65 112 0.0 1.0 0.00 0.00 0.00 78 1017.2
20260505190903 65 112 0.0 1.0 0.00 0.00 0.00 78 1017.1
20260505190803 65 112 0.0 1.0 0.00 0.00 0.00 78 1017.1
20260505190703 65 99 0.0 1.0 0.00 0.00 0.00 78 1017.1
20260505190603 65 108 0.0 2.0 0.00 0.00 0.00 77 1017.1
20260505190503 65 108 0.0 2.0 0.00 0.00 0.00 77 1017.0
20260505190403 65 108 0.0 2.0 0.00 0.00 0.00 77 1016.9
20260505190303 65 108 0.0 2.0 0.00 0.00 0.00 77 1016.9
20260505190204 65 106 0.0 2.0 0.00 0.00 0.00 77 1016.9
20260505190103 65 108 0.0 2.0 0.00 0.00 0.00 77 1016.9
20260505190003 65 108 0.0 2.0 0.00 0.00 0.00 77 1016.9
20260505185903 65 108 0.0 2.0 0.00 0.00 0.00 77 1016.9
20260505185803 65 108 0.0 2.0 0.00 0.00 0.00 77 1016.8
20260505185703 65 108 0.0 4.0 0.00 0.00 0.00 77 1016.8
20260505185603 65 108 0.0 4.0 0.00 0.00 0.00 77 1016.8
20260505185503 65 108 0.0 4.0 0.00 0.00 0.00 77 1016.7
20260505185403 65 108 0.0 4.0 0.00 0.00 0.00 77 1016.9
20260505185305 65 108 0.0 4.0 0.00 0.00 0.00 77 1016.8
20260505185203 65 107 0.0 4.0 0.00 0.00 0.00 77 1016.8
20260505185103 65 106 0.0 4.0 0.00 0.00 0.00 77 1016.8
20260505185003 65 106 0.0 4.0 0.00 0.00 0.00 77 1016.8
20260505184903 65 106 0.0 4.0 0.00 0.00 0.00 77 1016.8
20260505184803 65 106 0.0 4.0 0.00 0.00 0.00 77 1016.9
20260505184703 65 106 0.0 2.0 0.00 0.00 0.00 77 1016.9
20260505184603 65 106 0.0 2.0 0.00 0.00 0.00 77 1017.1
20260505184503 65 107 0.0 2.0 0.00 0.00 0.00 77 1016.9
20260505184403 65 106 0.0 2.0 0.00 0.00 0.00 77 1017.0
20260505184303 65 106 0.0 2.0 0.00 0.00 0.00 77 1017.1
20260505184203 65 106 0.0 2.0 0.00 0.00 0.00 77 1017.0
20260505184103 65 106 0.0 2.0 0.00 0.00 0.00 76 1017.0
20260505184003 65 106 0.0 2.0 0.00 0.00 0.00 76 1017.0
20260505183903 65 108 0.0 3.0 0.00 0.00 0.00 76 1017.0
20260505183803 65 109 0.0 3.0 0.00 0.00 0.00 76 1017.0
20260505183704 65 108 0.0 3.0 0.00 0.00 0.00 76 1017.1
20260505183604 65 108 0.0 3.0 0.00 0.00 0.00 76 1017.0
20260505183504 65 106 0.0 3.0 0.00 0.00 0.00 76 1017.0
20260505183404 65 106 0.0 3.0 0.00 0.00 0.00 76 1017.0
20260505183304 65 103 0.0 3.0 0.00 0.00 0.00 76 1016.9
20260505183204 65 104 0.0 3.0 0.00 0.00 0.00 76 1016.9
20260505183104 65 104 0.0 3.0 0.00 0.00 0.00 76 1016.9
20260505183004 65 104 0.0 3.0 0.00 0.00 0.00 76 1016.9
20260505182904 65 100 0.0 2.0 0.00 0.00 0.00 76 1016.9
20260505182804 65 99 0.0 2.0 0.00 0.00 0.00 75 1017.0
20260505182704 65 95 0.0 2.0 0.00 0.00 0.00 75 1017.0
20260505182604 65 95 0.0 2.0 0.00 0.00 0.00 75 1017.1
20260505182504 65 79 0.0 2.0 0.00 0.00 0.00 75 1017.0
20260505182404 65 79 0.0 2.0 0.00 0.00 0.00 75 1016.9
20260505182306 65 292 0.0 1.0 0.00 0.00 0.00 75 1017.0
20260505182204 65 292 0.0 2.0 0.00 0.00 0.00 75 1016.9
20260505182104 65 292 0.0 2.0 0.00 0.00 0.00 75 1016.9
20260505182004 65 292 0.0 2.0 0.00 0.00 0.00 75 1016.9
20260505181904 65 292 0.0 2.0 0.00 0.00 0.00 75 1016.8
20260505181804 65 292 0.0 2.0 0.00 0.00 0.00 75 1016.9
20260505181704 65 292 0.0 2.0 0.00 0.00 0.00 75 1017.0
20260505181604 65 292 0.0 2.0 0.00 0.00 0.00 75 1016.9
20260505181504 65 292 0.0 2.0 0.00 0.00 0.00 75 1016.9
20260505181404 65 292 0.0 2.0 0.00 0.00 0.00 75 1016.9
20260505181304 65 292 0.0 2.0 0.00 0.00 0.00 75 1016.8
20260505181204 66 0 0.0 0.0 0.00 0.00 0.00 74 1016.8
20260505181104 66 0 0.0 0.0 0.00 0.00 0.00 74 1016.8
20260505181004 66 0 0.0 0.0 0.00 0.00 0.00 74 1016.9
20260505180904 66 112 0.0 1.0 0.00 0.00 0.00 74 1016.8
20260505180804 66 112 0.0 1.0 0.00 0.00 0.00 74 1016.8
20260505180704 66 125 0.0 2.0 0.00 0.00 0.00 74 1016.8
20260505180604 66 125 0.0 2.0 0.00 0.00 0.00 74 1016.8
20260505180504 66 125 0.0 2.0 0.00 0.00 0.00 74 1016.8
20260505180404 66 122 0.0 2.0 0.00 0.00 0.00 74 1016.8
20260505180304 66 122 0.0 2.0 0.00 0.00 0.00 74 1016.7
20260505180204 66 122 0.0 2.0 0.00 0.00 0.00 74 1016.7
20260505180104 66 122 0.0 2.0 0.00 0.00 0.00 74 1016.8
20260505180004 66 122 0.0 2.0 0.00 0.00 0.00 74 1016.8
20260505175904 66 123 0.0 2.0 0.00 0.00 0.00 74 1016.8
20260505175804 66 123 0.0 2.0 0.00 0.00 0.00 74 1016.7
20260505175704 66 119 0.0 2.0 0.00 0.00 0.00 74 1016.8
20260505175604 66 119 0.0 2.0 0.00 0.00 0.00 74 1016.7
20260505175504 66 119 0.0 2.0 0.00 0.00 0.00 74 1016.8
20260505175404 66 112 0.0 1.0 0.00 0.00 0.00 74 1016.8
20260505175305 66 112 0.0 1.0 0.00 0.00 0.00 74 1016.8
20260505175204 66 112 0.0 1.0 0.00 0.00 0.00 74 1016.7
20260505175104 66 112 0.0 1.0 0.00 0.00 0.00 74 1016.8
20260505175003 66 112 0.0 2.0 0.00 0.00 0.00 73 1016.8
20260505174904 66 112 0.0 4.0 0.00 0.00 0.00 73 1016.7
20260505174803 66 106 0.0 4.0 0.00 0.00 0.00 73 1016.7
20260505174703 66 105 0.0 4.0 0.00 0.00 0.00 73 1016.7
20260505174604 66 105 0.0 4.0 0.00 0.00 0.00 73 1016.7
20260505174504 66 106 0.0 4.0 0.00 0.00 0.00 73 1016.6
20260505174404 66 106 0.0 4.0 0.00 0.00 0.00 73 1016.7
20260505174303 67 107 0.0 4.0 0.00 0.00 0.00 73 1016.7
20260505174203 67 106 0.0 4.0 0.00 0.00 0.00 73 1016.8
20260505174103 67 105 1.0 4.0 0.00 0.00 0.00 73 1016.7
20260505174003 67 104 0.0 4.0 0.00 0.00 0.00 73 1016.7
20260505173903 67 103 0.0 3.0 0.00 0.00 0.00 73 1016.7
20260505173803 67 103 0.0 3.0 0.00 0.00 0.00 72 1016.6
20260505173703 67 104 0.0 3.0 0.00 0.00 0.00 72 1016.6
20260505173603 67 106 0.0 3.0 0.00 0.00 0.00 72 1016.6
20260505173503 67 106 0.0 4.0 0.00 0.00 0.00 72 1016.6
20260505173403 67 106 0.0 4.0 0.00 0.00 0.00 72 1016.6
20260505173303 67 106 0.0 4.0 0.00 0.00 0.00 72 1016.6
20260505173203 67 107 0.0 4.0 0.00 0.00 0.00 72 1016.7
20260505173103 67 108 0.0 4.0 0.00 0.00 0.00 72 1016.8
20260505173003 67 110 0.0 4.0 0.00 0.00 0.00 72 1016.7
20260505172903 67 117 0.0 4.0 0.00 0.00 0.00 72 1016.7
20260505172803 67 111 0.0 4.0 0.00 0.00 0.00 72 1016.5
20260505172703 67 111 0.0 4.0 0.00 0.00 0.00 72 1016.7
20260505172603 67 111 0.0 4.0 0.00 0.00 0.00 72 1016.7
20260505172504 67 113 0.0 3.0 0.00 0.00 0.00 71 1016.8
20260505172403 67 113 0.0 3.0 0.00 0.00 0.00 71 1016.8
20260505172305 67 113 0.0 3.0 0.00 0.00 0.00 72 1016.8
20260505172203 67 113 0.0 3.0 0.00 0.00 0.00 71 1016.8
20260505172103 67 113 0.0 3.0 0.00 0.00 0.00 71 1016.8
20260505172003 67 113 0.0 3.0 0.00 0.00 0.00 71 1016.8
20260505171903 67 107 0.0 3.0 0.00 0.00 0.00 71 1016.9
20260505171803 67 111 0.0 3.0 0.00 0.00 0.00 71 1016.8
20260505171703 67 111 0.0 2.0 0.00 0.00 0.00 71 1016.8
20260505171603 68 110 0.0 2.0 0.00 0.00 0.00 71 1016.8
20260505171503 68 110 0.0 2.0 0.00 0.00 0.00 71 1016.8
20260505171403 68 110 0.0 2.0 0.00 0.00 0.00 71 1016.8
20260505171304 68 110 0.0 2.0 0.00 0.00 0.00 70 1016.8
20260505171203 68 110 0.0 2.0 0.00 0.00 0.00 70 1016.8
20260505171103 68 109 0.0 2.0 0.00 0.00 0.00 70 1016.8
20260505171003 68 109 0.0 2.0 0.00 0.00 0.00 70 1016.8
20260505170903 68 104 0.0 2.0 0.00 0.00 0.00 70 1016.8
20260505170803 68 106 0.0 2.0 0.00 0.00 0.00 70 1016.8
20260505170703 68 106 0.0 2.0 0.00 0.00 0.00 69 1016.8
20260505170603 68 107 0.0 2.0 0.00 0.00 0.00 69 1016.8
20260505170503 68 107 0.0 2.0 0.00 0.00 0.00 69 1016.8
20260505170403 68 107 0.0 2.0 0.00 0.00 0.00 69 1016.7
20260505170303 68 108 0.0 2.0 0.00 0.00 0.00 69 1016.7
20260505170203 68 109 0.0 2.0 0.00 0.00 0.00 69 1016.7
20260505170103 68 109 0.0 2.0 0.00 0.00 0.00 69 1016.7
20260505170003 69 109 0.0 2.0 0.00 0.00 0.00 69 1016.7
20260505165903 69 114 0.0 2.0 0.00 0.00 0.00 69 1016.8
20260505165803 69 112 0.0 2.0 0.00 0.00 0.00 68 1016.7
20260505165703 69 112 0.0 2.0 0.00 0.00 0.00 68 1016.7
20260505165603 69 112 0.0 2.0 0.00 0.00 0.00 68 1016.8
20260505165503 69 114 0.0 2.0 0.00 0.00 0.00 68 1016.7
20260505165403 69 115 0.0 2.0 0.00 0.00 0.00 68 1016.8
20260505165306 69 117 0.0 2.0 0.00 0.00 0.00 68 1016.8
20260505165203 69 120 0.0 2.0 0.00 0.00 0.00 68 1016.8
20260505165103 69 112 0.0 2.0 0.00 0.00 0.00 67 1016.8
20260505165003 69 121 0.0 3.0 0.00 0.00 0.00 67 1016.7
20260505164903 69 123 0.0 3.0 0.00 0.00 0.00 67 1016.7
20260505164803 69 123 0.0 3.0 0.00 0.00 0.00 67 1016.6
20260505164703 69 123 0.0 3.0 0.00 0.00 0.00 67 1016.7
20260505164603 69 122 0.0 3.0 0.00 0.00 0.00 67 1016.7
20260505164503 69 119 0.0 3.0 0.00 0.00 0.00 67 1016.6
20260505164403 69 118 0.0 3.0 0.00 0.00 0.00 67 1016.7
20260505164303 69 115 0.0 3.0 0.00 0.00 0.00 67 1016.6
20260505164203 70 115 0.0 3.0 0.00 0.00 0.00 67 1016.7
20260505164103 70 118 0.0 3.0 0.00 0.00 0.00 67 1016.6
20260505164003 70 112 0.0 3.0 0.00 0.00 0.00 67 1016.7
20260505163903 70 112 0.0 3.0 0.00 0.00 0.00 67 1016.6
20260505163803 70 112 0.0 3.0 0.00 0.00 0.00 67 1016.7
20260505163703 69 106 0.0 3.0 0.00 0.00 0.00 67 1016.6
20260505163603 70 106 0.0 3.0 0.00 0.00 0.00 67 1016.6
20260505163503 69 106 0.0 3.0 0.00 0.00 0.00 67 1016.7
20260505163403 69 105 0.0 3.0 0.00 0.00 0.00 67 1016.7
20260505163303 69 90 0.0 2.0 0.00 0.00 0.00 67 1016.6
20260505163203 69 90 0.0 2.0 0.00 0.00 0.00 67 1016.6
20260505163103 69 90 0.0 2.0 0.00 0.00 0.00 67 1016.7
20260505163003 69 108 0.0 3.0 0.00 0.00 0.00 67 1016.7
20260505162903 69 105 0.0 4.0 0.00 0.00 0.00 67 1016.6
20260505162803 69 105 0.0 4.0 0.00 0.00 0.00 67 1016.7
20260505162703 69 108 0.0 4.0 0.00 0.00 0.00 66 1016.7
20260505162603 69 108 0.0 4.0 0.00 0.00 0.00 66 1016.7
20260505162503 69 108 0.0 4.0 0.00 0.00 0.00 66 1016.6
20260505162403 69 108 0.0 4.0 0.00 0.00 0.00 66 1016.5
20260505162306 69 108 0.0 4.0 0.00 0.00 0.00 66 1016.6
20260505162203 69 114 0.0 4.0 0.00 0.00 0.00 66 1016.6
20260505162103 69 117 0.0 4.0 0.00 0.00 0.00 66 1016.6
20260505162003 69 110 0.0 4.0 0.00 0.00 0.00 65 1016.6
20260505161903 69 270 0.0 2.0 0.00 0.00 0.00 65 1016.7
20260505161803 69 270 0.0 2.0 0.00 0.00 0.00 65 1016.5
20260505161703 69 270 0.0 2.0 0.00 0.00 0.00 65 1016.5
20260505161603 69 270 0.0 2.0 0.00 0.00 0.00 65 1016.6
20260505161503 69 270 0.0 2.0 0.00 0.00 0.00 65 1016.6
20260505161403 70 191 0.0 2.0 0.00 0.00 0.00 65 1016.6
20260505161303 70 168 0.0 2.0 0.00 0.00 0.00 65 1016.6
20260505161203 70 112 0.0 1.0 0.00 0.00 0.00 65 1016.6
20260505161103 70 112 0.0 1.0 0.00 0.00 0.00 65 1016.7
20260505161004 70 112 0.0 1.0 0.00 0.00 0.00 64 1016.6
20260505160904 70 112 0.0 1.0 0.00 0.00 0.00 65 1016.7
20260505160804 70 95 0.0 2.0 0.00 0.00 0.00 64 1016.7
20260505160704 70 95 0.0 2.0 0.00 0.00 0.00 64 1016.6
20260505160604 70 95 0.0 2.0 0.00 0.00 0.00 64 1016.6
20260505160504 70 95 0.0 2.0 0.00 0.00 0.00 64 1016.7
20260505160404 70 326 0.0 2.0 0.00 0.00 0.00 64 1016.6
20260505160304 70 315 0.0 2.0 0.00 0.00 0.00 64 1016.6
20260505160204 70 315 0.0 2.0 0.00 0.00 0.00 64 1016.6
20260505160104 70 315 0.0 2.0 0.00 0.00 0.00 64 1016.6
20260505153304 71 103 0.0 2.0 0.00 0.00 0.00 63 1016.5
20260505153204 71 105 0.0 2.0 0.00 0.00 0.00 63 1016.5
20260505153103 71 104 0.0 2.0 0.00 0.00 0.00 63 1016.5
20260505153004 71 104 0.0 2.0 0.00 0.00 0.00 63 1016.5
20260505152903 71 106 0.0 2.0 0.00 0.00 0.00 63 1016.5
20260505152804 71 112 0.0 2.0 0.00 0.00 0.00 63 1016.5
20260505152704 71 112 0.0 2.0 0.00 0.00 0.00 63 1016.5
20260505152604 71 112 0.0 2.0 0.00 0.00 0.00 64 1016.7
20260505152504 71 112 0.0 2.0 0.00 0.00 0.00 64 1016.6
20260505152403 71 112 0.0 2.0 0.00 0.00 0.00 64 1016.7
20260505152305 71 112 0.0 2.0 0.00 0.00 0.00 64 1016.7
20260505152203 71 112 0.0 2.0 0.00 0.00 0.00 64 1016.6
20260505152103 71 112 0.0 2.0 0.00 0.00 0.00 64 1016.6
20260505152003 71 180 0.0 1.0 0.00 0.00 0.00 63 1016.5
20260505151903 71 243 0.0 1.0 0.00 0.00 0.00 63 1016.6
20260505151803 71 131 0.0 2.0 0.00 0.00 0.00 64 1016.6
20260505151703 71 119 0.0 2.0 0.00 0.00 0.00 64 1016.5
20260505151603 71 113 0.0 2.0 0.00 0.00 0.00 64 1016.5
20260505151503 71 113 0.0 2.0 0.00 0.00 0.00 64 1016.6
20260505151403 71 111 0.0 2.0 0.00 0.00 0.00 64 1016.6
20260505151303 71 115 0.0 3.0 0.00 0.00 0.00 64 1016.6
20260505151203 71 112 0.0 3.0 0.00 0.00 0.00 64 1016.6
20260505151103 71 112 0.0 3.0 0.00 0.00 0.00 64 1016.6
20260505151003 71 110 0.0 3.0 0.00 0.00 0.00 64 1016.6
20260505150903 71 109 0.0 3.0 0.00 0.00 0.00 64 1016.5
20260505150803 71 109 0.0 3.0 0.00 0.00 0.00 64 1016.6
20260505150703 71 103 0.0 3.0 0.00 0.00 0.00 64 1016.6
20260505150603 71 104 0.0 3.0 0.00 0.00 0.00 64 1016.5
20260505150503 71 104 0.0 3.0 0.00 0.00 0.00 64 1016.6
20260505150403 71 108 0.0 3.0 0.00 0.00 0.00 63 1016.6
20260505150303 71 105 0.0 3.0 0.00 0.00 0.00 63 1016.6
20260505150203 71 101 0.0 3.0 0.00 0.00 0.00 63 1016.6